Wetterdaten: Samstag, 03.01.2015
Datum Zeit Temp. Aussen +5cm Feuchte Auss Luftdruck Regen Sonnenschein Regendauer Solar Windben
03.01.2015 00:00 3,2 C 1,1 C 85 % 1032,1 hPa 0,0 l/m 0 min 0 min 0 W/m 12,6 km/h (3 Bft)
03.01.2015 00:02 3,2 C 1,1 C 85 % 1032,1 hPa 0,0 l/m 0 min 0 min 0 W/m 20,9 km/h (4 Bft)
03.01.2015 00:06 3,2 C 1,7 C 85 % 1032,0 hPa 0,0 l/m 0 min 0 min 0 W/m 16,7 km/h (3 Bft)
03.01.2015 00:08 3,2 C 1,7 C 85 % 1032,1 hPa 0,0 l/m 0 min 0 min 0 W/m 23,0 km/h (4 Bft)
03.01.2015 00:10 3,1 C 1,7 C 85 % 1032,2 hPa 0,0 l/m 0 min 0 min 0 W/m 16,7 km/h (3 Bft)
03.01.2015 00:12 3,1 C 1,7 C 86 % 1032,2 hPa 0,0 l/m 0 min 0 min 0 W/m 20,9 km/h (4 Bft)
03.01.2015 00:14 3,1 C 1,7 C 86 % 1032,2 hPa 0,0 l/m 0 min 0 min 0 W/m 20,9 km/h (4 Bft)
03.01.2015 00:16 3,1 C 1,7 C 86 % 1032,2 hPa 0,0 l/m 0 min 0 min 0 W/m 14,6 km/h (3 Bft)
03.01.2015 00:18 3,1 C 1,1 C 86 % 1032,2 hPa 0,0 l/m 0 min 0 min 0 W/m 12,6 km/h (3 Bft)
03.01.2015 00:20 3,1 C 1,1 C 86 % 1032,2 hPa 0,0 l/m 0 min 0 min 0 W/m 16,7 km/h (3 Bft)
03.01.2015 00:22 3,1 C 1,1 C 86 % 1032,3 hPa 0,0 l/m 0 min 0 min 0 W/m 18,8 km/h (3 Bft)
03.01.2015 00:24 3,1 C 1,1 C 86 % 1032,3 hPa 0,0 l/m 0 min 0 min 0 W/m 18,8 km/h (3 Bft)
03.01.2015 00:26 3,1 C 1,1 C 86 % 1032,3 hPa 0,0 l/m 0 min 0 min 0 W/m 20,9 km/h (4 Bft)
03.01.2015 00:28 3,0 C 1,1 C 86 % 1032,2 hPa 0,0 l/m 0 min 0 min 0 W/m 10,5 km/h (2 Bft)
03.01.2015 00:30 3,0 C 1,1 C 86 % 1032,1 hPa 0,0 l/m 0 min 0 min 0 W/m 14,6 km/h (3 Bft)
03.01.2015 00:32 3,0 C 1,1 C 86 % 1032,1 hPa 0,0 l/m 0 min 0 min 0 W/m 16,7 km/h (3 Bft)
03.01.2015 00:34 3,0 C 1,1 C 86 % 1032,1 hPa 0,0 l/m 0 min 0 min 0 W/m 18,8 km/h (3 Bft)
03.01.2015 00:36 3,0 C 1,1 C 86 % 1032,2 hPa 0,0 l/m 0 min 0 min 0 W/m 16,7 km/h (3 Bft)
03.01.2015 00:38 3,0 C 1,7 C 86 % 1032,1 hPa 0,0 l/m 0 min 0 min 0 W/m 14,6 km/h (3 Bft)
03.01.2015 00:40 2,9 C 1,7 C 86 % 1032,0 hPa 0,0 l/m 0 min 0 min 0 W/m 16,7 km/h (3 Bft)
03.01.2015 00:42 2,9 C 1,7 C 86 % 1032,0 hPa 0,0 l/m 0 min 0 min 0 W/m 18,8 km/h (3 Bft)
03.01.2015 00:44 2,9 C 1,7 C 86 % 1031,9 hPa 0,0 l/m 0 min 0 min 0 W/m 18,8 km/h (3 Bft)
03.01.2015 00:46 2,9 C 1,7 C 86 % 1031,9 hPa 0,0 l/m 0 min 0 min 0 W/m 23,0 km/h (4 Bft)
03.01.2015 00:48 2,9 C 1,7 C 86 % 1031,9 hPa 0,0 l/m 0 min 0 min 0 W/m 20,9 km/h (4 Bft)
03.01.2015 00:50 2,9 C 1,7 C 86 % 1031,9 hPa 0,0 l/m 0 min 0 min 0 W/m 16,7 km/h (3 Bft)
03.01.2015 00:52 2,9 C 1,7 C 86 % 1031,8 hPa 0,0 l/m 0 min 0 min 0 W/m 18,8 km/h (3 Bft)
03.01.2015 00:54 3,0 C 1,7 C 86 % 1031,8 hPa 0,0 l/m 0 min 0 min 0 W/m 18,8 km/h (3 Bft)
03.01.2015 00:56 3,0 C 1,7 C 87 % 1031,8 hPa 0,0 l/m 0 min 0 min 0 W/m 16,7 km/h (3 Bft)
03.01.2015 00:58 3,0 C 1,7 C 87 % 1031,8 hPa 0,0 l/m 0 min 0 min 0 W/m 14,6 km/h (3 Bft)
03.01.2015 01:00 3,0 C 1,7 C 87 % 1031,8 hPa 0,0 l/m 0 min 0 min 0 W/m 12,6 km/h (3 Bft)
03.01.2015 01:02 3,0 C 1,7 C 87 % 1031,8 hPa 0,0 l/m 0 min 0 min 0 W/m 12,6 km/h (3 Bft)
03.01.2015 01:04 3,0 C 1,7 C 87 % 1031,7 hPa 0,0 l/m 0 min 0 min 0 W/m 14,6 km/h (3 Bft)
03.01.2015 01:06 3,0 C 1,7 C 87 % 1031,8 hPa 0,0 l/m 0 min 0 min 0 W/m 10,5 km/h (2 Bft)
03.01.2015 01:08 3,0 C 1,7 C 87 % 1031,7 hPa 0,0 l/m 0 min 0 min 0 W/m 18,8 km/h (3 Bft)
03.01.2015 01:10 3,0 C 1,7 C 87 % 1031,7 hPa 0,0 l/m 0 min 0 min 0 W/m 14,6 km/h (3 Bft)
03.01.2015 01:12 3,0 C 1,7 C 87 % 1031,7 hPa 0,0 l/m 0 min 0 min 0 W/m 16,7 km/h (3 Bft)
03.01.2015 01:14 3,0 C 1,7 C 87 % 1031,7 hPa 0,0 l/m 0 min 0 min 0 W/m 14,6 km/h (3 Bft)
03.01.2015 01:16 3,0 C 1,7 C 86 % 1031,7 hPa 0,0 l/m 0 min 0 min 0 W/m 14,6 km/h (3 Bft)
03.01.2015 01:18 3,0 C 1,7 C 86 % 1031,8 hPa 0,0 l/m 0 min 0 min 0 W/m 14,6 km/h (3 Bft)
03.01.2015 01:20 3,0 C 1,7 C 86 % 1031,8 hPa 0,0 l/m 0 min 0 min 0 W/m 14,6 km/h (3 Bft)
03.01.2015 01:22 3,0 C 1,7 C 86 % 1031,8 hPa 0,0 l/m 0 min 0 min 0 W/m 14,6 km/h (3 Bft)
03.01.2015 01:24 2,9 C 1,7 C 86 % 1031,8 hPa 0,0 l/m 0 min 0 min 0 W/m 10,5 km/h (2 Bft)
03.01.2015 01:26 2,9 C 1,1 C 86 % 1031,8 hPa 0,0 l/m 0 min 0 min 0 W/m 10,5 km/h (2 Bft)
03.01.2015 01:28 2,9 C 1,1 C 86 % 1031,8 hPa 0,0 l/m 0 min 0 min 0 W/m 10,5 km/h (2 Bft)
03.01.2015 01:30 2,9 C 1,1 C 86 % 1031,9 hPa 0,0 l/m 0 min 0 min 0 W/m 12,6 km/h (3 Bft)
03.01.2015 01:32 2,9 C 1,1 C 86 % 1031,9 hPa 0,0 l/m 0 min 0 min 0 W/m 14,6 km/h (3 Bft)
03.01.2015 01:34 2,9 C 1,1 C 86 % 1031,8 hPa 0,0 l/m 0 min 0 min 0 W/m 14,6 km/h (3 Bft)
03.01.2015 01:36 2,9 C 1,1 C 86 % 1031,6 hPa 0,0 l/m 0 min 0 min 0 W/m 10,5 km/h (2 Bft)
03.01.2015 01:38 2,9 C 1,1 C 87 % 1031,7 hPa 0,0 l/m 0 min 0 min 0 W/m 16,7 km/h (3 Bft)
03.01.2015 01:40 2,9 C 1,1 C 87 % 1031,7 hPa 0,0 l/m 0 min 0 min 0 W/m 14,6 km/h (3 Bft)
03.01.2015 01:42 2,8 C 1,1 C 87 % 1031,7 hPa 0,0 l/m 0 min 0 min 0 W/m 16,7 km/h (3 Bft)
03.01.2015 01:44 2,8 C 1,1 C 87 % 1031,7 hPa 0,0 l/m 0 min 0 min 0 W/m 12,6 km/h (3 Bft)
03.01.2015 01:46 2,8 C 1,1 C 87 % 1031,7 hPa 0,0 l/m 0 min 0 min 0 W/m 6,3 km/h (2 Bft)
03.01.2015 01:48 2,8 C 1,1 C 87 % 1031,7 hPa 0,0 l/m 0 min 0 min 0 W/m 8,4 km/h (2 Bft)
03.01.2015 01:50 2,8 C 1,1 C 87 % 1031,8 hPa 0,0 l/m 0 min 0 min 0 W/m 14,6 km/h (3 Bft)
03.01.2015 01:52 2,8 C 1,1 C 87 % 1031,9 hPa 0,0 l/m 0 min 0 min 0 W/m 14,6 km/h (3 Bft)
03.01.2015 01:54 2,8 C 1,1 C 87 % 1031,9 hPa 0,0 l/m 0 min 0 min 0 W/m 12,6 km/h (3 Bft)
03.01.2015 01:56 2,8 C 1,1 C 87 % 1031,8 hPa 0,0 l/m 0 min 0 min 0 W/m 12,6 km/h (3 Bft)
03.01.2015 01:58 2,8 C 1,1 C 87 % 1031,8 hPa 0,0 l/m 0 min 0 min 0 W/m 12,6 km/h (3 Bft)
03.01.2015 02:00 2,8 C 1,1 C 87 % 1031,8 hPa 0,0 l/m 0 min 0 min 0 W/m 12,6 km/h (3 Bft)
03.01.2015 02:02 2,7 C 1,1 C 87 % 1031,8 hPa 0,0 l/m 0 min 0 min 0 W/m 14,6 km/h (3 Bft)
03.01.2015 02:04 2,7 C 1,1 C 87 % 1031,8 hPa 0,0 l/m 0 min 0 min 0 W/m 10,5 km/h (2 Bft)
03.01.2015 02:06 2,7 C 1,1 C 87 % 1031,7 hPa 0,0 l/m 0 min 0 min 0 W/m 16,7 km/h (3 Bft)
03.01.2015 02:08 2,7 C 1,1 C 87 % 1031,7 hPa 0,0 l/m 0 min 0 min 0 W/m 12,6 km/h (3 Bft)
03.01.2015 02:10 2,7 C 1,1 C 87 % 1031,6 hPa 0,0 l/m 0 min 0 min 0 W/m 12,6 km/h (3 Bft)
03.01.2015 02:12 2,7 C 1,1 C 87 % 1031,6 hPa 0,0 l/m 0 min 0 min 0 W/m 14,6 km/h (3 Bft)
03.01.2015 02:14 2,7 C 1,7 C 87 % 1031,6 hPa 0,0 l/m 0 min 0 min 0 W/m 12,6 km/h (3 Bft)
03.01.2015 02:16 2,7 C 1,1 C 87 % 1031,8 hPa 0,0 l/m 0 min 0 min 0 W/m 10,5 km/h (2 Bft)
03.01.2015 02:18 2,7 C 1,7 C 87 % 1031,7 hPa 0,0 l/m 0 min 0 min 0 W/m 12,6 km/h (3 Bft)
03.01.2015 02:20 2,7 C 1,7 C 87 % 1031,7 hPa 0,0 l/m 0 min 0 min 0 W/m 10,5 km/h (2 Bft)
03.01.2015 02:22 2,7 C 1,7 C 87 % 1031,6 hPa 0,0 l/m 0 min 0 min 0 W/m 10,5 km/h (2 Bft)
03.01.2015 02:24 2,7 C 1,7 C 87 % 1031,7 hPa 0,0 l/m 0 min 0 min 0 W/m 12,6 km/h (3 Bft)
03.01.2015 02:26 2,7 C 1,7 C 87 % 1031,6 hPa 0,0 l/m 0 min 0 min 0 W/m 14,6 km/h (3 Bft)
03.01.2015 02:28 2,7 C 1,7 C 87 % 1031,7 hPa 0,0 l/m 0 min 0 min 0 W/m 14,6 km/h (3 Bft)
03.01.2015 02:30 2,7 C 1,7 C 87 % 1031,7 hPa 0,0 l/m 0 min 0 min 0 W/m 10,5 km/h (2 Bft)
03.01.2015 02:32 2,7 C 1,7 C 87 % 1031,8 hPa 0,0 l/m 0 min 0 min 0 W/m 12,6 km/h (3 Bft)
03.01.2015 02:34 2,7 C 1,7 C 87 % 1031,8 hPa 0,0 l/m 0 min 0 min 0 W/m 16,7 km/h (3 Bft)
03.01.2015 02:36 2,7 C 1,7 C 87 % 1031,7 hPa 0,0 l/m 0 min 0 min 0 W/m 10,5 km/h (2 Bft)
03.01.2015 02:38 2,7 C 1,7 C 87 % 1031,7 hPa 0,0 l/m 0 min 0 min 0 W/m 12,6 km/h (3 Bft)
03.01.2015 02:40 2,8 C 1,7 C 87 % 1031,5 hPa 0,0 l/m 0 min 0 min 0 W/m 14,6 km/h (3 Bft)
03.01.2015 02:42 2,8 C 1,7 C 87 % 1031,5 hPa 0,0 l/m 0 min 0 min 0 W/m 16,7 km/h (3 Bft)
03.01.2015 02:44 2,8 C 1,7 C 87 % 1031,5 hPa 0,0 l/m 0 min 0 min 0 W/m 16,7 km/h (3 Bft)
03.01.2015 02:46 2,8 C 1,7 C 87 % 1031,5 hPa 0,0 l/m 0 min 0 min 0 W/m 16,7 km/h (3 Bft)
03.01.2015 02:48 2,8 C 1,7 C 87 % 1031,5 hPa 0,0 l/m 0 min 0 min 0 W/m 10,5 km/h (2 Bft)
03.01.2015 02:50 2,8 C 1,7 C 87 % 1031,5 hPa 0,0 l/m 0 min 0 min 0 W/m 12,6 km/h (3 Bft)
03.01.2015 02:52 2,8 C 1,7 C 87 % 1031,5 hPa 0,0 l/m 0 min 0 min 0 W/m 14,6 km/h (3 Bft)
03.01.2015 02:54 2,9 C 1,7 C 87 % 1031,5 hPa 0,0 l/m 0 min 0 min 0 W/m 12,6 km/h (3 Bft)
03.01.2015 02:56 2,9 C 1,7 C 87 % 1031,5 hPa 0,0 l/m 0 min 0 min 0 W/m 12,6 km/h (3 Bft)
03.01.2015 02:58 2,9 C 1,7 C 87 % 1031,4 hPa 0,0 l/m 0 min 0 min 0 W/m 14,6 km/h (3 Bft)
03.01.2015 03:00 2,9 C 1,7 C 87 % 1031,5 hPa 0,0 l/m 0 min 0 min 0 W/m 14,6 km/h (3 Bft)
03.01.2015 03:02 2,9 C 1,7 C 87 % 1031,4 hPa 0,0 l/m 0 min 0 min 0 W/m 16,7 km/h (3 Bft)
03.01.2015 03:04 2,9 C 1,7 C 87 % 1031,4 hPa 0,0 l/m 0 min 0 min 0 W/m 14,6 km/h (3 Bft)
03.01.2015 03:06 2,9 C 1,7 C 87 % 1031,3 hPa 0,0 l/m 0 min 0 min 0 W/m 8,4 km/h (2 Bft)
03.01.2015 03:08 2,9 C 1,7 C 87 % 1031,4 hPa 0,0 l/m 0 min 0 min 0 W/m 12,6 km/h (3 Bft)
03.01.2015 03:10 2,9 C 1,7 C 87 % 1031,4 hPa 0,0 l/m 0 min 0 min 0 W/m 14,6 km/h (3 Bft)
03.01.2015 03:12 3,0 C 1,7 C 87 % 1031,4 hPa 0,0 l/m 0 min 0 min 0 W/m 12,6 km/h (3 Bft)
03.01.2015 03:14 3,0 C 1,7 C 87 % 1031,3 hPa 0,0 l/m 0 min 0 min 0 W/m 16,7 km/h (3 Bft)
03.01.2015 03:16 3,0 C 1,7 C 87 % 1031,1 hPa 0,0 l/m 0 min 0 min 0 W/m 12,6 km/h (3 Bft)
03.01.2015 03:18 3,0 C 1,7 C 87 % 1031,1 hPa 0,0 l/m 0 min 0 min 0 W/m 14,6 km/h (3 Bft)
03.01.2015 03:20 3,0 C 1,7 C 87 % 1030,9 hPa 0,0 l/m 0 min 0 min 0 W/m 12,6 km/h (3 Bft)
03.01.2015 03:22 3,1 C 1,7 C 87 % 1030,9 hPa 0,0 l/m 0 min 0 min 0 W/m 10,5 km/h (2 Bft)
03.01.2015 03:24 3,1 C 1,7 C 87 % 1030,8 hPa 0,0 l/m 0 min 0 min 0 W/m 14,6 km/h (3 Bft)
03.01.2015 03:26 3,1 C 1,7 C 87 % 1030,8 hPa 0,0 l/m 0 min 0 min 0 W/m 14,6 km/h (3 Bft)
03.01.2015 03:28 3,1 C 1,7 C 87 % 1030,7 hPa 0,0 l/m 0 min 0 min 0 W/m 16,7 km/h (3 Bft)
03.01.2015 03:30 3,1 C 1,7 C 87 % 1030,6 hPa 0,0 l/m 0 min 0 min 0 W/m 10,5 km/h (2 Bft)
03.01.2015 03:32 3,1 C 2,2 C 87 % 1030,6 hPa 0,0 l/m 0 min 0 min 0 W/m 16,7 km/h (3 Bft)
03.01.2015 03:34 3,1 C 2,2 C 87 % 1030,5 hPa 0,0 l/m 0 min 0 min 0 W/m 18,8 km/h (3 Bft)
03.01.2015 03:36 3,1 C 2,2 C 87 % 1030,4 hPa 0,0 l/m 0 min 0 min 0 W/m 12,6 km/h (3 Bft)
03.01.2015 03:38 3,1 C 2,2 C 87 % 1030,4 hPa 0,0 l/m 0 min 0 min 0 W/m 14,6 km/h (3 Bft)
03.01.2015 03:40 3,2 C 2,2 C 87 % 1030,3 hPa 0,0 l/m 0 min 0 min 0 W/m 10,5 km/h (2 Bft)
03.01.2015 03:42 3,2 C 1,7 C 87 % 1030,3 hPa 0,0 l/m 0 min 0 min 0 W/m 10,5 km/h (2 Bft)
03.01.2015 03:44 3,2 C 1,7 C 87 % 1030,3 hPa 0,0 l/m 0 min 0 min 0 W/m 14,6 km/h (3 Bft)
03.01.2015 03:46 3,2 C 1,7 C 87 % 1030,3 hPa 0,0 l/m 0 min 0 min 0 W/m 10,5 km/h (2 Bft)
03.01.2015 03:48 3,2 C 1,7 C 87 % 1030,2 hPa 0,0 l/m 0 min 0 min 0 W/m 12,6 km/h (3 Bft)
03.01.2015 03:50 3,2 C 1,7 C 87 % 1030,2 hPa 0,0 l/m 0 min 0 min 0 W/m 10,5 km/h (2 Bft)
03.01.2015 03:52 3,2 C 1,7 C 87 % 1030,2 hPa 0,0 l/m 0 min 0 min 0 W/m 8,4 km/h (2 Bft)
03.01.2015 03:54 3,2 C 1,7 C 87 % 1030,2 hPa 0,0 l/m 0 min 0 min 0 W/m 10,5 km/h (2 Bft)
03.01.2015 03:56 3,2 C 1,7 C 87 % 1030,2 hPa 0,0 l/m 0 min 0 min 0 W/m 8,4 km/h (2 Bft)
03.01.2015 03:58 3,2 C 1,7 C 87 % 1030,2 hPa 0,0 l/m 0 min 0 min 0 W/m 14,6 km/h (3 Bft)
03.01.2015 04:00 3,2 C 1,7 C 87 % 1030,2 hPa 0,0 l/m 0 min 0 min 0 W/m 12,6 km/h (3 Bft)
03.01.2015 04:02 3,2 C 1,7 C 87 % 1030,2 hPa 0,0 l/m 0 min 0 min 0 W/m 12,6 km/h (3 Bft)
03.01.2015 04:04 3,2 C 1,7 C 87 % 1030,2 hPa 0,0 l/m 0 min 0 min 0 W/m 14,6 km/h (3 Bft)
03.01.2015 04:06 3,2 C 2,2 C 87 % 1030,2 hPa 0,0 l/m 0 min 0 min 0 W/m 12,6 km/h (3 Bft)
03.01.2015 04:08 3,2 C 2,2 C 87 % 1030,3 hPa 0,0 l/m 0 min 0 min 0 W/m 18,8 km/h (3 Bft)
03.01.2015 04:10 3,2 C 2,2 C 87 % 1030,2 hPa 0,0 l/m 0 min 0 min 0 W/m 14,6 km/h (3 Bft)
03.01.2015 04:12 3,2 C 2,2 C 87 % 1030,0 hPa 0,0 l/m 0 min 0 min 0 W/m 14,6 km/h (3 Bft)
03.01.2015 04:14 3,2 C 2,2 C 87 % 1030,1 hPa 0,0 l/m 0 min 0 min 0 W/m 14,6 km/h (3 Bft)
03.01.2015 04:16 3,2 C 2,2 C 87 % 1030,1 hPa 0,0 l/m 0 min 0 min 0 W/m 14,6 km/h (3 Bft)
03.01.2015 04:18 3,2 C 2,2 C 87 % 1030,1 hPa 0,0 l/m 0 min 0 min 0 W/m 14,6 km/h (3 Bft)
03.01.2015 04:20 3,2 C 1,7 C 87 % 1030,0 hPa 0,0 l/m 0 min 0 min 0 W/m 12,6 km/h (3 Bft)
03.01.2015 04:22 3,2 C 1,7 C 87 % 1030,0 hPa 0,0 l/m 0 min 0 min 0 W/m 12,6 km/h (3 Bft)
03.01.2015 04:24 3,2 C 1,7 C 87 % 1029,9 hPa 0,0 l/m 0 min 0 min 0 W/m 16,7 km/h (3 Bft)
03.01.2015 04:26 3,2 C 1,7 C 87 % 1029,9 hPa 0,0 l/m 0 min 0 min 0 W/m 8,4 km/h (2 Bft)
03.01.2015 04:28 3,2 C 2,2 C 87 % 1029,9 hPa 0,0 l/m 0 min 0 min 0 W/m 14,6 km/h (3 Bft)
03.01.2015 04:30 3,2 C 1,7 C 87 % 1029,8 hPa 0,0 l/m 0 min 0 min 0 W/m 14,6 km/h (3 Bft)
03.01.2015 04:32 3,2 C 1,7 C 87 % 1029,7 hPa 0,0 l/m 0 min 0 min 0 W/m 10,5 km/h (2 Bft)
03.01.2015 04:34 3,2 C 1,7 C 87 % 1029,7 hPa 0,0 l/m 0 min 0 min 0 W/m 14,6 km/h (3 Bft)
03.01.2015 04:36 3,2 C 1,7 C 87 % 1029,6 hPa 0,0 l/m 0 min 0 min 0 W/m 8,4 km/h (2 Bft)
03.01.2015 04:38 3,2 C 1,7 C 87 % 1029,7 hPa 0,0 l/m 0 min 0 min 0 W/m 12,6 km/h (3 Bft)
03.01.2015 04:40 3,2 C 1,7 C 87 % 1029,5 hPa 0,0 l/m 0 min 0 min 0 W/m 10,5 km/h (2 Bft)
03.01.2015 04:42 3,2 C 1,7 C 87 % 1029,5 hPa 0,0 l/m 0 min 0 min 0 W/m 12,6 km/h (3 Bft)
03.01.2015 04:44 3,2 C 1,7 C 87 % 1029,5 hPa 0,0 l/m 0 min 0 min 0 W/m 14,6 km/h (3 Bft)
03.01.2015 04:46 3,2 C 1,7 C 87 % 1029,5 hPa 0,0 l/m 0 min 0 min 0 W/m 14,6 km/h (3 Bft)
03.01.2015 04:48 3,2 C 1,7 C 87 % 1029,5 hPa 0,0 l/m 0 min 0 min 0 W/m 12,6 km/h (3 Bft)
03.01.2015 04:50 3,2 C 2,2 C 87 % 1029,5 hPa 0,0 l/m 0 min 0 min 0 W/m 14,6 km/h (3 Bft)
03.01.2015 04:52 3,2 C 2,2 C 87 % 1029,5 hPa 0,0 l/m 0 min 0 min 0 W/m 16,7 km/h (3 Bft)
03.01.2015 04:54 3,2 C 2,2 C 87 % 1029,4 hPa 0,0 l/m 0 min 0 min 0 W/m 14,6 km/h (3 Bft)
03.01.2015 04:56 3,2 C 2,2 C 87 % 1029,6 hPa 0,0 l/m 0 min 0 min 0 W/m 14,6 km/h (3 Bft)
03.01.2015 04:58 3,3 C 2,2 C 87 % 1029,6 hPa 0,0 l/m 0 min 0 min 0 W/m 16,7 km/h (3 Bft)
03.01.2015 05:00 3,3 C 2,2 C 87 % 1029,5 hPa 0,0 l/m 0 min 0 min 0 W/m 16,7 km/h (3 Bft)
03.01.2015 05:02 3,3 C 2,2 C 87 % 1029,5 hPa 0,0 l/m 0 min 0 min 0 W/m 12,6 km/h (3 Bft)
03.01.2015 05:04 3,3 C 2,2 C 87 % 1029,6 hPa 0,0 l/m 0 min 0 min 0 W/m 12,6 km/h (3 Bft)
03.01.2015 05:06 3,3 C 2,2 C 87 % 1029,6 hPa 0,0 l/m 0 min 0 min 0 W/m 16,7 km/h (3 Bft)
03.01.2015 05:08 3,3 C 2,2 C 87 % 1029,6 hPa 0,0 l/m 0 min 0 min 0 W/m 12,6 km/h (3 Bft)
03.01.2015 05:10 3,3 C 1,7 C 87 % 1029,5 hPa 0,0 l/m 0 min 0 min 0 W/m 12,6 km/h (3 Bft)
03.01.2015 05:12 3,3 C 1,7 C 87 % 1029,4 hPa 0,0 l/m 0 min 0 min 0 W/m 16,7 km/h (3 Bft)
03.01.2015 05:14 3,3 C 1,7 C 88 % 1029,4 hPa 0,0 l/m 0 min 0 min 0 W/m 16,7 km/h (3 Bft)
03.01.2015 05:16 3,3 C 2,2 C 88 % 1029,4 hPa 0,0 l/m 0 min 0 min 0 W/m 18,8 km/h (3 Bft)
03.01.2015 05:18 3,3 C 2,2 C 88 % 1029,4 hPa 0,0 l/m 0 min 0 min 0 W/m 14,6 km/h (3 Bft)
03.01.2015 05:20 3,3 C 2,2 C 88 % 1029,2 hPa 0,0 l/m 0 min 0 min 0 W/m 14,6 km/h (3 Bft)
03.01.2015 05:22 3,3 C 2,2 C 88 % 1029,2 hPa 0,0 l/m 0 min 0 min 0 W/m 10,5 km/h (2 Bft)
03.01.2015 05:24 3,3 C 2,2 C 88 % 1029,1 hPa 0,0 l/m 0 min 0 min 0 W/m 14,6 km/h (3 Bft)
03.01.2015 05:26 3,3 C 2,2 C 88 % 1029,2 hPa 0,0 l/m 0 min 0 min 0 W/m 16,7 km/h (3 Bft)
03.01.2015 05:28 3,3 C 2,2 C 88 % 1029,1 hPa 0,0 l/m 0 min 0 min 0 W/m 14,6 km/h (3 Bft)
03.01.2015 05:30 3,3 C 2,2 C 88 % 1029,0 hPa 0,0 l/m 0 min 0 min 0 W/m 16,7 km/h (3 Bft)
03.01.2015 05:32 3,3 C 2,2 C 88 % 1028,9 hPa 0,0 l/m 0 min 0 min 0 W/m 12,6 km/h (3 Bft)
03.01.2015 05:34 3,3 C 2,2 C 88 % 1028,9 hPa 0,0 l/m 0 min 0 min 0 W/m 16,7 km/h (3 Bft)
03.01.2015 05:36 3,3 C 2,2 C 88 % 1028,7 hPa 0,0 l/m 0 min 0 min 0 W/m 12,6 km/h (3 Bft)
03.01.2015 05:38 3,3 C 2,2 C 88 % 1028,6 hPa 0,0 l/m 0 min 0 min 0 W/m 8,4 km/h (2 Bft)
03.01.2015 05:40 3,3 C 2,2 C 88 % 1028,5 hPa 0,0 l/m 0 min 0 min 0 W/m 12,6 km/h (3 Bft)
03.01.2015 05:42 3,3 C 2,2 C 88 % 1028,4 hPa 0,0 l/m 0 min 0 min 0 W/m 6,3 km/h (2 Bft)
03.01.2015 05:44 3,3 C 2,2 C 88 % 1028,3 hPa 0,0 l/m 0 min 0 min 0 W/m 10,5 km/h (2 Bft)
03.01.2015 05:46 3,3 C 2,2 C 88 % 1028,2 hPa 0,0 l/m 0 min 0 min 0 W/m 10,5 km/h (2 Bft)
03.01.2015 05:48 3,3 C 2,2 C 88 % 1028,2 hPa 0,0 l/m 0 min 0 min 0 W/m 8,4 km/h (2 Bft)
03.01.2015 05:50 3,3 C 2,2 C 88 % 1028,1 hPa 0,0 l/m 0 min 0 min 0 W/m 12,6 km/h (3 Bft)
03.01.2015 05:52 3,3 C 2,2 C 88 % 1028,2 hPa 0,0 l/m 0 min 0 min 0 W/m 12,6 km/h (3 Bft)
03.01.2015 05:54 3,3 C 2,2 C 88 % 1028,1 hPa 0,0 l/m 0 min 0 min 0 W/m 12,6 km/h (3 Bft)
03.01.2015 05:56 3,3 C 2,2 C 88 % 1028,2 hPa 0,0 l/m 0 min 0 min 0 W/m 10,5 km/h (2 Bft)
03.01.2015 05:58 3,4 C 2,2 C 88 % 1028,1 hPa 0,0 l/m 0 min 0 min 0 W/m 12,6 km/h (3 Bft)
03.01.2015 06:00 3,4 C 2,2 C 88 % 1028,0 hPa 0,0 l/m 0 min 0 min 0 W/m 12,6 km/h (3 Bft)
03.01.2015 06:02 3,4 C 2,2 C 88 % 1027,9 hPa 0,0 l/m 0 min 0 min 0 W/m 16,7 km/h (3 Bft)
03.01.2015 06:06 3,4 C 2,2 C 88 % 1027,7 hPa 0,0 l/m 0 min 0 min 0 W/m 18,8 km/h (3 Bft)
03.01.2015 06:08 3,4 C 2,2 C 88 % 1027,7 hPa 0,0 l/m 0 min 0 min 0 W/m 14,6 km/h (3 Bft)
03.01.2015 06:10 3,4 C 2,2 C 88 % 1027,6 hPa 0,0 l/m 0 min 0 min 0 W/m 14,6 km/h (3 Bft)
03.01.2015 06:12 3,4 C 2,2 C 88 % 1027,6 hPa 0,0 l/m 0 min 0 min 0 W/m 16,7 km/h (3 Bft)
03.01.2015 06:14 3,4 C 2,2 C 88 % 1027,7 hPa 0,0 l/m 0 min 0 min 0 W/m 23,0 km/h (4 Bft)
03.01.2015 06:16 3,4 C 2,2 C 88 % 1027,7 hPa 0,0 l/m 0 min 0 min 0 W/m 12,6 km/h (3 Bft)
03.01.2015 06:18 3,4 C 2,2 C 88 % 1027,6 hPa 0,0 l/m 0 min 0 min 0 W/m 16,7 km/h (3 Bft)
03.01.2015 06:20 3,4 C 2,2 C 88 % 1027,6 hPa 0,0 l/m 0 min 0 min 0 W/m 10,5 km/h (2 Bft)
03.01.2015 06:22 3,4 C 2,2 C 88 % 1027,6 hPa 0,0 l/m 0 min 0 min 0 W/m 14,6 km/h (3 Bft)
03.01.2015 06:24 3,5 C 2,2 C 88 % 1027,6 hPa 0,0 l/m 0 min 0 min 0 W/m 12,6 km/h (3 Bft)
03.01.2015 06:26 3,5 C 2,2 C 88 % 1027,7 hPa 0,0 l/m 0 min 0 min 0 W/m 14,6 km/h (3 Bft)
03.01.2015 06:28 3,5 C 2,2 C 88 % 1027,5 hPa 0,0 l/m 0 min 0 min 0 W/m 18,8 km/h (3 Bft)
03.01.2015 06:30 3,5 C 2,2 C 88 % 1027,6 hPa 0,0 l/m 0 min 0 min 0 W/m 14,6 km/h (3 Bft)
03.01.2015 06:32 3,5 C 2,2 C 87 % 1027,7 hPa 0,0 l/m 0 min 0 min 0 W/m 12,6 km/h (3 Bft)
03.01.2015 06:34 3,5 C 2,2 C 87 % 1027,8 hPa 0,0 l/m 0 min 0 min 0 W/m 14,6 km/h (3 Bft)
03.01.2015 06:36 3,5 C 2,2 C 87 % 1027,7 hPa 0,0 l/m 0 min 0 min 0 W/m 18,8 km/h (3 Bft)
03.01.2015 06:38 3,5 C 2,2 C 87 % 1027,6 hPa 0,0 l/m 0 min 0 min 0 W/m 14,6 km/h (3 Bft)
03.01.2015 06:40 3,5 C 2,2 C 87 % 1027,5 hPa 0,0 l/m 0 min 0 min 0 W/m 18,8 km/h (3 Bft)
03.01.2015 06:42 3,6 C 2,2 C 87 % 1027,5 hPa 0,0 l/m 0 min 0 min 0 W/m 14,6 km/h (3 Bft)
03.01.2015 06:44 3,6 C 2,2 C 87 % 1027,4 hPa 0,0 l/m 0 min 0 min 0 W/m 14,6 km/h (3 Bft)
03.01.2015 06:46 3,6 C 2,2 C 87 % 1027,4 hPa 0,0 l/m 0 min 0 min 0 W/m 14,6 km/h (3 Bft)
03.01.2015 06:48 3,6 C 2,2 C 87 % 1027,4 hPa 0,0 l/m 0 min 0 min 0 W/m 14,6 km/h (3 Bft)
03.01.2015 06:50 3,6 C 2,2 C 87 % 1027,3 hPa 0,0 l/m 0 min 0 min 0 W/m 18,8 km/h (3 Bft)
03.01.2015 06:52 3,6 C 2,2 C 87 % 1027,4 hPa 0,0 l/m 0 min 0 min 0 W/m 18,8 km/h (3 Bft)
03.01.2015 06:54 3,6 C 2,2 C 87 % 1027,5 hPa 0,0 l/m 0 min 0 min 0 W/m 16,7 km/h (3 Bft)
03.01.2015 06:56 3,6 C 2,2 C 87 % 1027,5 hPa 0,0 l/m 0 min 0 min 0 W/m 14,6 km/h (3 Bft)
03.01.2015 06:58 3,6 C 2,2 C 87 % 1027,4 hPa 0,0 l/m 0 min 0 min 0 W/m 25,1 km/h (4 Bft)
03.01.2015 07:00 3,6 C 2,2 C 87 % 1027,4 hPa 0,0 l/m 0 min 0 min 0 W/m 14,6 km/h (3 Bft)
03.01.2015 07:02 3,6 C 2,2 C 87 % 1027,5 hPa 0,0 l/m 0 min 0 min 0 W/m 16,7 km/h (3 Bft)
03.01.2015 07:04 3,6 C 2,2 C 87 % 1027,6 hPa 0,0 l/m 0 min 0 min 0 W/m 16,7 km/h (3 Bft)
03.01.2015 07:06 3,6 C 2,2 C 87 % 1027,6 hPa 0,0 l/m 0 min 0 min 0 W/m 16,7 km/h (3 Bft)
03.01.2015 07:08 3,6 C 2,2 C 87 % 1027,7 hPa 0,0 l/m 0 min 0 min 0 W/m 23,0 km/h (4 Bft)
03.01.2015 07:10 3,6 C 2,2 C 87 % 1027,7 hPa 0,0 l/m 0 min 0 min 0 W/m 20,9 km/h (4 Bft)
03.01.2015 07:12 3,6 C 2,2 C 87 % 1027,6 hPa 0,0 l/m 0 min 0 min 0 W/m 14,6 km/h (3 Bft)
03.01.2015 07:14 3,6 C 2,2 C 87 % 1027,5 hPa 0,0 l/m 0 min 0 min 0 W/m 12,6 km/h (3 Bft)
03.01.2015 07:16 3,6 C 2,2 C 87 % 1027,4 hPa 0,0 l/m 0 min 0 min 0 W/m 16,7 km/h (3 Bft)
03.01.2015 07:18 3,6 C 2,2 C 87 % 1027,3 hPa 0,0 l/m 0 min 0 min 0 W/m 14,6 km/h (3 Bft)
03.01.2015 07:20 3,6 C 2,2 C 87 % 1027,3 hPa 0,0 l/m 0 min 0 min 0 W/m 18,8 km/h (3 Bft)
03.01.2015 07:22 3,6 C 2,2 C 87 % 1027,3 hPa 0,0 l/m 0 min 0 min 0 W/m 18,8 km/h (3 Bft)
03.01.2015 07:24 3,6 C 2,2 C 87 % 1027,3 hPa 0,0 l/m 0 min 0 min 0 W/m 18,8 km/h (3 Bft)
03.01.2015 07:26 3,6 C 2,2 C 87 % 1027,2 hPa 0,0 l/m 0 min 0 min 0 W/m 18,8 km/h (3 Bft)
03.01.2015 07:28 3,7 C 2,2 C 87 % 1027,2 hPa 0,0 l/m 0 min 0 min 0 W/m 16,7 km/h (3 Bft)
03.01.2015 07:30 3,6 C 2,2 C 87 % 1027,1 hPa 0,0 l/m 0 min 0 min 0 W/m 14,6 km/h (3 Bft)
03.01.2015 07:32 3,7 C 2,2 C 87 % 1027,1 hPa 0,0 l/m 0 min 0 min 0 W/m 14,6 km/h (3 Bft)
03.01.2015 07:34 3,7 C 2,2 C 87 % 1027,1 hPa 0,0 l/m 0 min 0 min 0 W/m 18,8 km/h (3 Bft)
03.01.2015 07:36 3,7 C 2,2 C 87 % 1027,1 hPa 0,0 l/m 0 min 0 min 0 W/m 14,6 km/h (3 Bft)
03.01.2015 07:38 3,7 C 2,2 C 87 % 1027,1 hPa 0,0 l/m 0 min 0 min 0 W/m 18,8 km/h (3 Bft)
03.01.2015 07:40 3,7 C 2,2 C 87 % 1027,0 hPa 0,0 l/m 0 min 0 min 0 W/m 14,6 km/h (3 Bft)
03.01.2015 07:42 3,7 C 2,2 C 87 % 1027,0 hPa 0,0 l/m 0 min 0 min 0 W/m 12,6 km/h (3 Bft)
03.01.2015 07:44 3,7 C 2,2 C 86 % 1027,0 hPa 0,0 l/m 0 min 0 min 0 W/m 16,7 km/h (3 Bft)
03.01.2015 07:46 3,7 C 2,2 C 86 % 1027,0 hPa 0,0 l/m 0 min 0 min 0 W/m 20,9 km/h (4 Bft)
03.01.2015 07:48 3,7 C 2,2 C 86 % 1026,9 hPa 0,0 l/m 0 min 0 min 0 W/m 20,9 km/h (4 Bft)
03.01.2015 07:50 3,7 C 2,8 C 86 % 1026,8 hPa 0,0 l/m 0 min 0 min 0 W/m 25,1 km/h (4 Bft)
03.01.2015 07:52 3,7 C 2,8 C 86 % 1026,8 hPa 0,0 l/m 0 min 0 min 0 W/m 23,0 km/h (4 Bft)
03.01.2015 07:54 3,7 C 2,8 C 86 % 1026,9 hPa 0,0 l/m 0 min 0 min 0 W/m 31,4 km/h (5 Bft)
03.01.2015 07:56 3,7 C 2,8 C 86 % 1026,9 hPa 0,0 l/m 0 min 0 min 0 W/m 18,8 km/h (3 Bft)
03.01.2015 07:58 3,7 C 2,8 C 86 % 1026,8 hPa 0,0 l/m 0 min 0 min 0 W/m 31,4 km/h (5 Bft)
03.01.2015 08:00 3,7 C 2,8 C 86 % 1026,8 hPa 0,0 l/m 0 min 0 min 0 W/m 25,1 km/h (4 Bft)
03.01.2015 08:02 3,8 C 2,8 C 86 % 1026,7 hPa 0,0 l/m 0 min 0 min 0 W/m 25,1 km/h (4 Bft)
03.01.2015 08:04 3,8 C 2,8 C 86 % 1026,7 hPa 0,0 l/m 0 min 0 min 0 W/m 16,7 km/h (3 Bft)
03.01.2015 08:06 3,8 C 2,2 C 86 % 1026,6 hPa 0,0 l/m 0 min 0 min 0 W/m 23,0 km/h (4 Bft)
03.01.2015 08:08 3,8 C 2,2 C 86 % 1026,5 hPa 0,0 l/m 0 min 0 min 0 W/m 27,2 km/h (4 Bft)
03.01.2015 08:10 3,8 C 2,2 C 86 % 1026,5 hPa 0,0 l/m 0 min 0 min 0 W/m 27,2 km/h (4 Bft)
03.01.2015 08:12 3,8 C 2,2 C 86 % 1026,5 hPa 0,0 l/m 0 min 0 min 0 W/m 20,9 km/h (4 Bft)
03.01.2015 08:14 3,8 C 2,2 C 86 % 1026,6 hPa 0,0 l/m 0 min 0 min 0 W/m 25,1 km/h (4 Bft)
03.01.2015 08:16 3,8 C 2,2 C 86 % 1026,6 hPa 0,0 l/m 0 min 0 min 0 W/m 14,6 km/h (3 Bft)
03.01.2015 08:18 3,8 C 2,2 C 86 % 1026,6 hPa 0,0 l/m 0 min 0 min 0 W/m 18,8 km/h (3 Bft)
03.01.2015 08:20 3,7 C 2,2 C 86 % 1026,6 hPa 0,0 l/m 0 min 0 min 0 W/m 20,9 km/h (4 Bft)
03.01.2015 08:22 3,7 C 2,2 C 86 % 1026,6 hPa 0,0 l/m 0 min 0 min 0 W/m 25,1 km/h (4 Bft)
03.01.2015 08:24 3,7 C 2,2 C 86 % 1026,6 hPa 0,0 l/m 0 min 0 min 0 W/m 23,0 km/h (4 Bft)
03.01.2015 08:26 3,7 C 2,2 C 86 % 1026,8 hPa 0,0 l/m 0 min 0 min 0 W/m 23,0 km/h (4 Bft)
03.01.2015 08:28 3,7 C 2,2 C 86 % 1026,8 hPa 0,0 l/m 0 min 0 min 0 W/m 14,6 km/h (3 Bft)
03.01.2015 08:30 3,7 C 2,2 C 86 % 1026,8 hPa 0,0 l/m 0 min 0 min 0 W/m 18,8 km/h (3 Bft)
03.01.2015 08:32 3,7 C 2,2 C 86 % 1026,8 hPa 0,0 l/m 0 min 0 min 0 W/m 18,8 km/h (3 Bft)
03.01.2015 08:34 3,7 C 2,2 C 86 % 1026,7 hPa 0,0 l/m 0 min 0 min 0 W/m 20,9 km/h (4 Bft)
03.01.2015 08:36 3,7 C 2,2 C 86 % 1026,8 hPa 0,0 l/m 0 min 0 min 0 W/m 16,7 km/h (3 Bft)
03.01.2015 08:38 3,7 C 2,2 C 86 % 1026,7 hPa 0,0 l/m 0 min 0 min 0 W/m 18,8 km/h (3 Bft)
03.01.2015 08:40 3,7 C 2,2 C 86 % 1026,7 hPa 0,0 l/m 0 min 0 min 0 W/m 18,8 km/h (3 Bft)
03.01.2015 08:42 3,7 C 2,2 C 86 % 1026,7 hPa 0,0 l/m 0 min 0 min 0 W/m 25,1 km/h (4 Bft)
03.01.2015 08:44 3,7 C 2,2 C 86 % 1026,6 hPa 0,0 l/m 0 min 0 min 0 W/m 14,6 km/h (3 Bft)
03.01.2015 08:46 3,7 C 2,2 C 86 % 1026,6 hPa 0,0 l/m 0 min 0 min 0 W/m 29,3 km/h (5 Bft)
03.01.2015 08:48 3,7 C 2,8 C 86 % 1026,4 hPa 0,0 l/m 0 min 0 min 0 W/m 23,0 km/h (4 Bft)
03.01.2015 08:50 3,7 C 2,8 C 86 % 1026,4 hPa 0,0 l/m 0 min 0 min 4 W/m 23,0 km/h (4 Bft)
03.01.2015 08:52 3,7 C 2,8 C 86 % 1026,4 hPa 0,0 l/m 0 min 0 min 5 W/m 20,9 km/h (4 Bft)
03.01.2015 08:54 3,7 C 2,8 C 86 % 1026,3 hPa 0,0 l/m 0 min 0 min 5 W/m 27,2 km/h (4 Bft)
03.01.2015 08:56 3,7 C 2,8 C 86 % 1026,3 hPa 0,0 l/m 0 min 0 min 6 W/m 25,1 km/h (4 Bft)
03.01.2015 08:58 3,7 C 2,8 C 86 % 1026,1 hPa 0,0 l/m 0 min 0 min 7 W/m 16,7 km/h (3 Bft)
03.01.2015 09:00 3,8 C 2,8 C 86 % 1026,0 hPa 0,0 l/m 0 min 0 min 7 W/m 23,0 km/h (4 Bft)
03.01.2015 09:02 3,8 C 2,8 C 86 % 1026,0 hPa 0,0 l/m 0 min 0 min 7 W/m 20,9 km/h (4 Bft)
03.01.2015 09:04 3,8 C 2,8 C 86 % 1025,9 hPa 0,0 l/m 0 min 0 min 8 W/m 18,8 km/h (3 Bft)
03.01.2015 09:06 3,8 C 2,8 C 86 % 1025,8 hPa 0,0 l/m 0 min 0 min 9 W/m 23,0 km/h (4 Bft)
03.01.2015 09:08 3,8 C 2,8 C 86 % 1025,9 hPa 0,0 l/m 0 min 0 min 9 W/m 20,9 km/h (4 Bft)
03.01.2015 09:10 3,8 C 2,8 C 86 % 1025,8 hPa 0,0 l/m 0 min 0 min 11 W/m 23,0 km/h (4 Bft)
03.01.2015 09:12 3,8 C 2,8 C 86 % 1025,7 hPa 0,0 l/m 0 min 0 min 10 W/m 18,8 km/h (3 Bft)
03.01.2015 09:14 3,8 C 2,8 C 86 % 1025,8 hPa 0,0 l/m 0 min 0 min 11 W/m 25,1 km/h (4 Bft)
03.01.2015 09:16 3,8 C 2,8 C 86 % 1025,7 hPa 0,0 l/m 0 min 0 min 11 W/m 23,0 km/h (4 Bft)
03.01.2015 09:18 3,8 C 2,8 C 85 % 1025,8 hPa 0,0 l/m 0 min 0 min 11 W/m 31,4 km/h (5 Bft)
03.01.2015 09:20 3,8 C 2,8 C 85 % 1025,8 hPa 0,0 l/m 0 min 0 min 11 W/m 23,0 km/h (4 Bft)
03.01.2015 09:22 3,9 C 2,8 C 85 % 1025,7 hPa 0,0 l/m 0 min 2 min 11 W/m 29,3 km/h (5 Bft)
03.01.2015 09:24 3,9 C 2,8 C 85 % 1025,6 hPa 0,0 l/m 0 min 2 min 11 W/m 29,3 km/h (5 Bft)
03.01.2015 09:26 3,9 C 2,8 C 85 % 1025,6 hPa 0,0 l/m 0 min 2 min 11 W/m 18,8 km/h (3 Bft)
03.01.2015 09:28 3,9 C 2,8 C 86 % 1025,6 hPa 0,0 l/m 0 min 0 min 11 W/m 23,0 km/h (4 Bft)
03.01.2015 09:30 3,9 C 2,8 C 86 % 1025,6 hPa 0,0 l/m 0 min 2 min 11 W/m 23,0 km/h (4 Bft)
03.01.2015 09:32 3,9 C 2,2 C 86 % 1025,6 hPa 0,0 l/m 0 min 2 min 12 W/m 27,2 km/h (4 Bft)
03.01.2015 09:34 3,9 C 2,2 C 86 % 1025,6 hPa 0,0 l/m 0 min 2 min 14 W/m 31,4 km/h (5 Bft)
03.01.2015 09:36 3,9 C 2,2 C 86 % 1025,6 hPa 0,0 l/m 0 min 2 min 16 W/m 25,1 km/h (4 Bft)
03.01.2015 09:38 3,9 C 2,2 C 86 % 1025,6 hPa 0,0 l/m 0 min 0 min 18 W/m 35,6 km/h (5 Bft)
03.01.2015 09:40 3,9 C 2,2 C 86 % 1025,6 hPa 0,0 l/m 0 min 0 min 18 W/m 35,6 km/h (5 Bft)
03.01.2015 09:42 4,0 C 2,2 C 86 % 1025,6 hPa 0,0 l/m 0 min 2 min 17 W/m 27,2 km/h (4 Bft)
03.01.2015 09:44 4,0 C 2,2 C 86 % 1025,7 hPa 0,0 l/m 0 min 2 min 16 W/m 43,9 km/h (6 Bft)
03.01.2015 09:46 4,0 C 2,2 C 86 % 1025,7 hPa 0,0 l/m 0 min 2 min 16 W/m 41,8 km/h (6 Bft)
03.01.2015 09:48 4,0 C 2,2 C 87 % 1025,6 hPa 0,0 l/m 0 min 2 min 16 W/m 35,6 km/h (5 Bft)
03.01.2015 09:50 4,0 C 2,2 C 87 % 1025,6 hPa 0,0 l/m 0 min 2 min 18 W/m 35,6 km/h (5 Bft)
03.01.2015 09:52 4,0 C 2,2 C 87 % 1025,7 hPa 0,0 l/m 0 min 2 min 19 W/m 33,5 km/h (5 Bft)
03.01.2015 09:54 3,9 C 2,2 C 87 % 1025,6 hPa 0,0 l/m 0 min 2 min 19 W/m 35,6 km/h (5 Bft)
03.01.2015 09:56 3,9 C 2,2 C 87 % 1025,6 hPa 0,0 l/m 0 min 2 min 19 W/m 27,2 km/h (4 Bft)
03.01.2015 09:58 3,9 C 2,2 C 87 % 1025,6 hPa 0,0 l/m 0 min 0 min 19 W/m 29,3 km/h (5 Bft)
03.01.2015 10:00 3,9 C 2,2 C 88 % 1025,5 hPa 0,0 l/m 0 min 0 min 21 W/m 27,2 km/h (4 Bft)
03.01.2015 10:02 3,9 C 2,2 C 88 % 1025,5 hPa 0,0 l/m 0 min 0 min 22 W/m 39,7 km/h (6 Bft)
03.01.2015 10:04 3,9 C 2,2 C 88 % 1025,4 hPa 0,0 l/m 0 min 2 min 23 W/m 25,1 km/h (4 Bft)
03.01.2015 10:06 3,9 C 2,2 C 88 % 1025,4 hPa 0,0 l/m 0 min 0 min 24 W/m 23,0 km/h (4 Bft)
03.01.2015 10:08 3,9 C 2,2 C 88 % 1025,4 hPa 0,0 l/m 0 min 0 min 25 W/m 25,1 km/h (4 Bft)
03.01.2015 10:10 3,9 C 2,2 C 88 % 1025,3 hPa 0,0 l/m 0 min 0 min 26 W/m 23,0 km/h (4 Bft)
03.01.2015 10:12 3,9 C 2,2 C 88 % 1025,4 hPa 0,0 l/m 0 min 2 min 26 W/m 27,2 km/h (4 Bft)
03.01.2015 10:14 3,9 C 2,2 C 88 % 1025,4 hPa 0,0 l/m 0 min 2 min 26 W/m 27,2 km/h (4 Bft)
03.01.2015 10:16 3,9 C 2,2 C 88 % 1025,3 hPa 0,0 l/m 0 min 2 min 26 W/m 29,3 km/h (5 Bft)
03.01.2015 10:18 3,9 C 2,2 C 89 % 1025,2 hPa 0,0 l/m 0 min 2 min 27 W/m 31,4 km/h (5 Bft)
03.01.2015 10:20 3,9 C 2,2 C 89 % 1025,1 hPa 0,0 l/m 0 min 2 min 29 W/m 25,1 km/h (4 Bft)
03.01.2015 10:22 3,8 C 2,2 C 89 % 1025,2 hPa 0,0 l/m 0 min 2 min 30 W/m 29,3 km/h (5 Bft)
03.01.2015 10:24 3,8 C 2,2 C 89 % 1025,1 hPa 0,0 l/m 0 min 2 min 32 W/m 27,2 km/h (4 Bft)
03.01.2015 10:26 3,8 C 2,2 C 89 % 1025,0 hPa 0,0 l/m 0 min 2 min 33 W/m 20,9 km/h (4 Bft)
03.01.2015 10:28 3,8 C 2,2 C 89 % 1024,9 hPa 0,0 l/m 0 min 2 min 33 W/m 23,0 km/h (4 Bft)
03.01.2015 10:30 3,8 C 2,2 C 89 % 1024,9 hPa 0,0 l/m 0 min 2 min 35 W/m 18,8 km/h (3 Bft)
03.01.2015 10:32 3,8 C 2,2 C 89 % 1024,8 hPa 0,0 l/m 0 min 2 min 33 W/m 16,7 km/h (3 Bft)
03.01.2015 10:34 3,8 C 2,2 C 90 % 1024,7 hPa 0,0 l/m 0 min 2 min 31 W/m 18,8 km/h (3 Bft)
03.01.2015 10:36 3,8 C 2,2 C 90 % 1024,7 hPa 0,0 l/m 0 min 2 min 32 W/m 18,8 km/h (3 Bft)
03.01.2015 10:38 3,8 C 2,2 C 90 % 1024,6 hPa 0,0 l/m 0 min 2 min 35 W/m 18,8 km/h (3 Bft)
03.01.2015 10:40 3,8 C 2,2 C 90 % 1024,6 hPa 0,0 l/m 0 min 2 min 39 W/m 20,9 km/h (4 Bft)
03.01.2015 10:42 3,8 C 2,2 C 90 % 1024,4 hPa 0,0 l/m 0 min 2 min 40 W/m 16,7 km/h (3 Bft)
03.01.2015 10:44 3,8 C 2,2 C 90 % 1024,5 hPa 0,0 l/m 0 min 2 min 40 W/m 16,7 km/h (3 Bft)
03.01.2015 10:46 3,8 C 2,2 C 90 % 1024,4 hPa 0,0 l/m 0 min 2 min 40 W/m 20,9 km/h (4 Bft)
03.01.2015 10:48 3,8 C 2,2 C 90 % 1024,3 hPa 0,0 l/m 0 min 0 min 42 W/m 18,8 km/h (3 Bft)
03.01.2015 10:50 3,8 C 2,2 C 91 % 1024,3 hPa 0,0 l/m 0 min 0 min 42 W/m 18,8 km/h (3 Bft)
03.01.2015 10:52 3,7 C 2,2 C 91 % 1024,3 hPa 0,0 l/m 0 min 2 min 40 W/m 20,9 km/h (4 Bft)
03.01.2015 10:54 3,7 C 2,2 C 91 % 1024,3 hPa 0,0 l/m 0 min 0 min 40 W/m 16,7 km/h (3 Bft)
03.01.2015 10:56 3,7 C 2,2 C 91 % 1024,3 hPa 0,0 l/m 0 min 0 min 40 W/m 27,2 km/h (4 Bft)
03.01.2015 10:58 3,7 C 2,2 C 91 % 1024,3 hPa 0,0 l/m 0 min 2 min 40 W/m 16,7 km/h (3 Bft)
03.01.2015 11:00 3,7 C 2,2 C 91 % 1024,4 hPa 0,0 l/m 0 min 2 min 40 W/m 18,8 km/h (3 Bft)
03.01.2015 11:02 3,7 C 2,2 C 91 % 1024,3 hPa 0,0 l/m 0 min 2 min 40 W/m 18,8 km/h (3 Bft)
03.01.2015 11:04 3,7 C 2,2 C 91 % 1024,3 hPa 0,0 l/m 0 min 2 min 39 W/m 20,9 km/h (4 Bft)
03.01.2015 11:06 3,7 C 2,2 C 91 % 1024,3 hPa 0,0 l/m 0 min 2 min 39 W/m 16,7 km/h (3 Bft)
03.01.2015 11:08 3,7 C 2,2 C 91 % 1024,2 hPa 0,0 l/m 0 min 2 min 39 W/m 14,6 km/h (3 Bft)
03.01.2015 11:10 3,7 C 2,2 C 91 % 1024,1 hPa 0,0 l/m 0 min 2 min 39 W/m 18,8 km/h (3 Bft)
03.01.2015 11:12 3,7 C 2,2 C 91 % 1024,0 hPa 0,0 l/m 0 min 2 min 36 W/m 16,7 km/h (3 Bft)
03.01.2015 11:14 3,7 C 2,2 C 91 % 1024,0 hPa 0,0 l/m 0 min 2 min 34 W/m 16,7 km/h (3 Bft)
03.01.2015 11:16 3,6 C 2,2 C 91 % 1024,1 hPa 0,0 l/m 0 min 2 min 34 W/m 25,1 km/h (4 Bft)
03.01.2015 11:18 3,6 C 2,2 C 91 % 1024,1 hPa 0,0 l/m 0 min 2 min 33 W/m 20,9 km/h (4 Bft)
03.01.2015 11:20 3,6 C 2,2 C 91 % 1024,1 hPa 0,0 l/m 0 min 2 min 32 W/m 16,7 km/h (3 Bft)
03.01.2015 11:22 3,6 C 2,2 C 91 % 1023,9 hPa 0,0 l/m 0 min 2 min 32 W/m 16,7 km/h (3 Bft)
03.01.2015 11:24 3,6 C 2,2 C 92 % 1023,9 hPa 0,0 l/m 0 min 2 min 31 W/m 18,8 km/h (3 Bft)
03.01.2015 11:26 3,6 C 2,2 C 92 % 1023,7 hPa 0,0 l/m 0 min 2 min 30 W/m 12,6 km/h (3 Bft)
03.01.2015 11:28 3,6 C 2,2 C 92 % 1023,7 hPa 0,0 l/m 0 min 2 min 27 W/m 14,6 km/h (3 Bft)
03.01.2015 11:30 3,6 C 2,2 C 92 % 1023,6 hPa 0,0 l/m 0 min 2 min 26 W/m 14,6 km/h (3 Bft)
03.01.2015 11:32 3,5 C 2,2 C 92 % 1023,5 hPa 0,0 l/m 0 min 2 min 26 W/m 10,5 km/h (2 Bft)
03.01.2015 11:34 3,5 C 2,2 C 92 % 1023,5 hPa 0,2 l/m 0 min 2 min 26 W/m 12,6 km/h (3 Bft)
03.01.2015 11:36 3,5 C 2,2 C 92 % 1023,5 hPa 0,0 l/m 0 min 2 min 25 W/m 18,8 km/h (3 Bft)
03.01.2015 11:38 3,5 C 2,2 C 92 % 1023,5 hPa 0,0 l/m 0 min 2 min 26 W/m 18,8 km/h (3 Bft)
03.01.2015 11:40 3,5 C 1,7 C 92 % 1023,4 hPa 0,0 l/m 0 min 2 min 25 W/m 27,2 km/h (4 Bft)
03.01.2015 11:42 3,4 C 1,7 C 92 % 1023,4 hPa 0,0 l/m 0 min 2 min 24 W/m 20,9 km/h (4 Bft)
03.01.2015 11:44 3,4 C 1,7 C 92 % 1023,4 hPa 0,0 l/m 0 min 2 min 26 W/m 18,8 km/h (3 Bft)
03.01.2015 11:46 3,4 C 1,7 C 92 % 1023,3 hPa 0,0 l/m 0 min 2 min 26 W/m 25,1 km/h (4 Bft)
03.01.2015 11:48 3,4 C 1,7 C 92 % 1023,3 hPa 0,0 l/m 0 min 2 min 24 W/m 18,8 km/h (3 Bft)
03.01.2015 11:50 3,3 C 1,7 C 92 % 1023,3 hPa 0,0 l/m 0 min 2 min 25 W/m 23,0 km/h (4 Bft)
03.01.2015 11:52 3,3 C 1,7 C 92 % 1023,3 hPa 0,0 l/m 0 min 2 min 26 W/m 16,7 km/h (3 Bft)
03.01.2015 11:54 3,3 C 1,7 C 92 % 1023,1 hPa 0,0 l/m 0 min 2 min 27 W/m 18,8 km/h (3 Bft)
03.01.2015 11:56 3,3 C 1,7 C 92 % 1023,0 hPa 0,0 l/m 0 min 2 min 26 W/m 16,7 km/h (3 Bft)
03.01.2015 11:58 3,3 C 1,7 C 92 % 1023,0 hPa 0,2 l/m 0 min 2 min 26 W/m 14,6 km/h (3 Bft)
03.01.2015 12:00 3,3 C 1,7 C 92 % 1023,0 hPa 0,0 l/m 0 min 2 min 26 W/m 12,6 km/h (3 Bft)
03.01.2015 12:02 3,2 C 1,7 C 92 % 1022,9 hPa 0,0 l/m 0 min 2 min 26 W/m 16,7 km/h (3 Bft)
03.01.2015 12:06 3,2 C 1,7 C 92 % 1022,7 hPa 0,0 l/m 0 min 2 min 28 W/m 16,7 km/h (3 Bft)
03.01.2015 12:08 3,2 C 1,7 C 92 % 1022,7 hPa 0,0 l/m 0 min 2 min 32 W/m 16,7 km/h (3 Bft)
03.01.2015 12:10 3,2 C 1,7 C 92 % 1022,6 hPa 0,2 l/m 0 min 2 min 34 W/m 16,7 km/h (3 Bft)
03.01.2015 12:12 3,2 C 1,7 C 93 % 1022,6 hPa 0,0 l/m 0 min 2 min 35 W/m 14,6 km/h (3 Bft)
03.01.2015 12:14 3,2 C 1,7 C 93 % 1022,5 hPa 0,0 l/m 0 min 2 min 37 W/m 10,5 km/h (2 Bft)
03.01.2015 12:16 3,1 C 1,7 C 93 % 1022,4 hPa 0,0 l/m 0 min 2 min 39 W/m 16,7 km/h (3 Bft)
03.01.2015 12:18 3,1 C 1,7 C 93 % 1022,4 hPa 0,0 l/m 0 min 2 min 40 W/m 14,6 km/h (3 Bft)
03.01.2015 12:20 3,1 C 1,7 C 93 % 1022,3 hPa 0,0 l/m 0 min 2 min 44 W/m 18,8 km/h (3 Bft)
03.01.2015 12:22 3,1 C 1,7 C 93 % 1022,3 hPa 0,0 l/m 0 min 2 min 46 W/m 18,8 km/h (3 Bft)
03.01.2015 12:24 3,1 C 1,7 C 93 % 1022,1 hPa 0,0 l/m 0 min 2 min 46 W/m 25,1 km/h (4 Bft)
03.01.2015 12:26 3,1 C 1,7 C 93 % 1022,0 hPa 0,0 l/m 0 min 2 min 46 W/m 27,2 km/h (4 Bft)
03.01.2015 12:28 3,0 C 1,7 C 93 % 1021,9 hPa 0,0 l/m 0 min 2 min 43 W/m 25,1 km/h (4 Bft)
03.01.2015 12:30 3,0 C 1,7 C 93 % 1021,8 hPa 0,0 l/m 0 min 2 min 40 W/m 18,8 km/h (3 Bft)
03.01.2015 12:32 2,9 C 1,7 C 93 % 1021,7 hPa 0,2 l/m 0 min 2 min 41 W/m 18,8 km/h (3 Bft)
03.01.2015 12:34 2,9 C 1,7 C 93 % 1021,7 hPa 0,0 l/m 0 min 2 min 41 W/m 14,6 km/h (3 Bft)
03.01.2015 12:36 2,9 C 1,7 C 93 % 1021,6 hPa 0,0 l/m 0 min 2 min 45 W/m 16,7 km/h (3 Bft)
03.01.2015 12:38 2,9 C 1,7 C 93 % 1021,6 hPa 0,0 l/m 0 min 2 min 46 W/m 12,6 km/h (3 Bft)
03.01.2015 12:40 2,9 C 1,7 C 93 % 1021,6 hPa 0,0 l/m 0 min 2 min 46 W/m 20,9 km/h (4 Bft)
03.01.2015 12:42 2,9 C 1,7 C 93 % 1021,5 hPa 0,0 l/m 0 min 2 min 46 W/m 18,8 km/h (3 Bft)
03.01.2015 12:44 2,9 C 1,7 C 93 % 1021,5 hPa 0,0 l/m 0 min 2 min 47 W/m 12,6 km/h (3 Bft)
03.01.2015 12:46 2,9 C 1,7 C 94 % 1021,5 hPa 0,0 l/m 0 min 2 min 47 W/m 18,8 km/h (3 Bft)
03.01.2015 12:48 2,9 C 1,7 C 94 % 1021,4 hPa 0,0 l/m 0 min 2 min 43 W/m 8,4 km/h (2 Bft)
03.01.2015 12:50 2,9 C 1,7 C 94 % 1021,2 hPa 0,0 l/m 0 min 2 min 42 W/m 8,4 km/h (2 Bft)
03.01.2015 12:52 2,9 C 1,7 C 93 % 1021,2 hPa 0,0 l/m 0 min 2 min 46 W/m 23,0 km/h (4 Bft)
03.01.2015 12:54 2,8 C 1,7 C 94 % 1021,1 hPa 0,0 l/m 0 min 2 min 50 W/m 20,9 km/h (4 Bft)
03.01.2015 12:56 2,8 C 1,7 C 94 % 1021,2 hPa 0,0 l/m 0 min 2 min 48 W/m 23,0 km/h (4 Bft)
03.01.2015 12:58 2,8 C 1,7 C 94 % 1021,0 hPa 0,0 l/m 0 min 2 min 49 W/m 18,8 km/h (3 Bft)
03.01.2015 13:00 2,8 C 1,7 C 94 % 1020,9 hPa 0,0 l/m 0 min 2 min 49 W/m 20,9 km/h (4 Bft)
03.01.2015 13:02 2,7 C 1,7 C 94 % 1020,8 hPa 0,0 l/m 0 min 2 min 47 W/m 16,7 km/h (3 Bft)
03.01.2015 13:04 2,7 C 1,7 C 94 % 1020,8 hPa 0,2 l/m 0 min 2 min 49 W/m 14,6 km/h (3 Bft)
03.01.2015 13:06 2,7 C 1,7 C 94 % 1020,8 hPa 0,0 l/m 0 min 2 min 46 W/m 14,6 km/h (3 Bft)
03.01.2015 13:08 2,7 C 1,7 C 94 % 1020,8 hPa 0,0 l/m 0 min 2 min 45 W/m 12,6 km/h (3 Bft)
03.01.2015 13:10 2,7 C 1,7 C 94 % 1020,8 hPa 0,0 l/m 0 min 2 min 41 W/m 18,8 km/h (3 Bft)
03.01.2015 13:12 2,7 C 1,1 C 94 % 1021,1 hPa 0,0 l/m 0 min 2 min 34 W/m 20,9 km/h (4 Bft)
03.01.2015 13:14 2,6 C 1,1 C 94 % 1021,2 hPa 0,2 l/m 0 min 2 min 27 W/m 20,9 km/h (4 Bft)
03.01.2015 13:16 2,6 C 1,1 C 94 % 1021,1 hPa 0,0 l/m 0 min 2 min 26 W/m 14,6 km/h (3 Bft)
03.01.2015 13:18 2,6 C 1,1 C 94 % 1021,0 hPa 0,0 l/m 0 min 2 min 30 W/m 23,0 km/h (4 Bft)
03.01.2015 13:20 2,6 C 1,1 C 94 % 1020,8 hPa 0,0 l/m 0 min 2 min 36 W/m 12,6 km/h (3 Bft)
03.01.2015 13:22 2,6 C 1,7 C 94 % 1020,6 hPa 0,0 l/m 0 min 2 min 39 W/m 16,7 km/h (3 Bft)
03.01.2015 13:24 2,6 C 1,1 C 94 % 1020,2 hPa 0,0 l/m 0 min 2 min 39 W/m 18,8 km/h (3 Bft)
03.01.2015 13:26 2,5 C 1,1 C 94 % 1019,9 hPa 0,0 l/m 0 min 2 min 42 W/m 16,7 km/h (3 Bft)
03.01.2015 13:28 2,5 C 1,1 C 94 % 1019,9 hPa 0,0 l/m 0 min 2 min 44 W/m 20,9 km/h (4 Bft)
03.01.2015 13:30 2,5 C 1,1 C 94 % 1019,8 hPa 0,2 l/m 0 min 2 min 44 W/m 10,5 km/h (2 Bft)
03.01.2015 13:32 2,5 C 1,1 C 94 % 1019,9 hPa 0,0 l/m 0 min 2 min 40 W/m 18,8 km/h (3 Bft)
03.01.2015 13:34 2,4 C 1,1 C 94 % 1019,8 hPa 0,0 l/m 0 min 2 min 42 W/m 12,6 km/h (3 Bft)
03.01.2015 13:36 2,4 C 1,1 C 94 % 1019,6 hPa 0,0 l/m 0 min 2 min 46 W/m 10,5 km/h (2 Bft)
03.01.2015 13:38 2,4 C 1,1 C 94 % 1019,5 hPa 0,2 l/m 0 min 2 min 46 W/m 8,4 km/h (2 Bft)
03.01.2015 13:40 2,4 C 1,7 C 94 % 1019,5 hPa 0,0 l/m 0 min 2 min 43 W/m 10,5 km/h (2 Bft)
03.01.2015 13:42 2,4 C 1,7 C 94 % 1019,4 hPa 0,0 l/m 0 min 2 min 44 W/m 10,5 km/h (2 Bft)
03.01.2015 13:44 2,4 C 1,7 C 94 % 1019,2 hPa 0,0 l/m 0 min 2 min 48 W/m 16,7 km/h (3 Bft)
03.01.2015 13:46 2,4 C 1,7 C 94 % 1019,1 hPa 0,0 l/m 0 min 2 min 49 W/m 16,7 km/h (3 Bft)
03.01.2015 13:48 2,4 C 1,1 C 94 % 1019,2 hPa 0,0 l/m 0 min 2 min 46 W/m 20,9 km/h (4 Bft)
03.01.2015 13:50 2,4 C 1,1 C 94 % 1019,2 hPa 0,0 l/m 0 min 2 min 43 W/m 18,8 km/h (3 Bft)
03.01.2015 13:52 2,4 C 1,1 C 94 % 1019,2 hPa 0,0 l/m 0 min 2 min 43 W/m 14,6 km/h (3 Bft)
03.01.2015 13:54 2,4 C 1,1 C 94 % 1019,2 hPa 0,0 l/m 0 min 2 min 47 W/m 16,7 km/h (3 Bft)
03.01.2015 13:56 2,4 C 1,1 C 94 % 1019,1 hPa 0,0 l/m 0 min 0 min 50 W/m 12,6 km/h (3 Bft)
03.01.2015 13:58 2,4 C 1,7 C 94 % 1019,1 hPa 0,0 l/m 0 min 0 min 50 W/m 16,7 km/h (3 Bft)
03.01.2015 14:00 2,4 C 1,1 C 94 % 1019,0 hPa 0,0 l/m 0 min 0 min 49 W/m 18,8 km/h (3 Bft)
03.01.2015 14:02 2,3 C 1,1 C 95 % 1019,0 hPa 0,0 l/m 0 min 0 min 54 W/m 16,7 km/h (3 Bft)
03.01.2015 14:04 2,3 C 1,1 C 95 % 1018,9 hPa 0,0 l/m 0 min 0 min 50 W/m 14,6 km/h (3 Bft)
03.01.2015 14:06 2,3 C 1,1 C 95 % 1018,9 hPa 0,0 l/m 0 min 0 min 47 W/m 12,6 km/h (3 Bft)
03.01.2015 14:08 2,3 C 1,1 C 95 % 1018,8 hPa 0,0 l/m 0 min 0 min 46 W/m 10,5 km/h (2 Bft)
03.01.2015 14:10 2,3 C 1,7 C 95 % 1018,8 hPa 0,0 l/m 0 min 0 min 50 W/m 10,5 km/h (2 Bft)
03.01.2015 14:12 2,3 C 1,7 C 95 % 1018,7 hPa 0,0 l/m 0 min 0 min 52 W/m 14,6 km/h (3 Bft)
03.01.2015 14:14 2,3 C 1,7 C 95 % 1018,7 hPa 0,0 l/m 0 min 0 min 51 W/m 12,6 km/h (3 Bft)
03.01.2015 14:16 2,3 C 1,7 C 95 % 1018,7 hPa 0,0 l/m 0 min 0 min 50 W/m 8,4 km/h (2 Bft)
03.01.2015 14:18 2,3 C 1,7 C 95 % 1018,7 hPa 0,0 l/m 0 min 0 min 48 W/m 12,6 km/h (3 Bft)
03.01.2015 14:20 2,3 C 1,7 C 95 % 1018,7 hPa 0,0 l/m 0 min 0 min 47 W/m 8,4 km/h (2 Bft)
03.01.2015 14:22 2,3 C 1,7 C 95 % 1018,8 hPa 0,0 l/m 0 min 0 min 44 W/m 10,5 km/h (2 Bft)
03.01.2015 14:24 2,3 C 1,7 C 95 % 1018,7 hPa 0,0 l/m 0 min 0 min 43 W/m 8,4 km/h (2 Bft)
03.01.2015 14:26 2,3 C 1,7 C 95 % 1018,7 hPa 0,0 l/m 0 min 0 min 42 W/m 12,6 km/h (3 Bft)
03.01.2015 14:28 2,3 C 1,7 C 95 % 1018,6 hPa 0,0 l/m 0 min 0 min 39 W/m 14,6 km/h (3 Bft)
03.01.2015 14:30 2,4 C 1,7 C 95 % 1018,6 hPa 0,0 l/m 0 min 0 min 38 W/m 8,4 km/h (2 Bft)
03.01.2015 14:32 2,4 C 1,7 C 95 % 1018,6 hPa 0,0 l/m 0 min 0 min 35 W/m 8,4 km/h (2 Bft)
03.01.2015 14:34 2,4 C 1,7 C 95 % 1018,5 hPa 0,0 l/m 0 min 0 min 33 W/m 8,4 km/h (2 Bft)
03.01.2015 14:36 2,4 C 1,7 C 95 % 1018,5 hPa 0,0 l/m 0 min 0 min 32 W/m 8,4 km/h (2 Bft)
03.01.2015 14:38 2,4 C 1,7 C 95 % 1018,4 hPa 0,0 l/m 0 min 0 min 33 W/m 12,6 km/h (3 Bft)
03.01.2015 14:40 2,4 C 1,7 C 95 % 1018,3 hPa 0,0 l/m 0 min 0 min 33 W/m 10,5 km/h (2 Bft)
03.01.2015 14:42 2,4 C 1,7 C 95 % 1018,2 hPa 0,0 l/m 0 min 0 min 33 W/m 10,5 km/h (2 Bft)
03.01.2015 14:44 2,4 C 1,7 C 95 % 1018,1 hPa 0,0 l/m 0 min 0 min 32 W/m 8,4 km/h (2 Bft)
03.01.2015 14:46 2,4 C 1,7 C 95 % 1018,2 hPa 0,0 l/m 0 min 0 min 32 W/m 10,5 km/h (2 Bft)
03.01.2015 14:48 2,4 C 1,7 C 95 % 1018,2 hPa 0,0 l/m 0 min 0 min 30 W/m 8,4 km/h (2 Bft)
03.01.2015 14:50 2,4 C 1,7 C 95 % 1018,1 hPa 0,0 l/m 0 min 0 min 33 W/m 6,3 km/h (2 Bft)
03.01.2015 14:52 2,4 C 1,7 C 95 % 1018,0 hPa 0,0 l/m 0 min 0 min 39 W/m 4,2 km/h (1 Bft)
03.01.2015 14:54 2,4 C 1,7 C 95 % 1017,8 hPa 0,0 l/m 0 min 0 min 42 W/m 8,4 km/h (2 Bft)
03.01.2015 14:56 2,4 C 1,7 C 95 % 1017,7 hPa 0,0 l/m 0 min 0 min 48 W/m 8,4 km/h (2 Bft)
03.01.2015 14:58 2,4 C 1,7 C 95 % 1017,7 hPa 0,0 l/m 0 min 0 min 52 W/m 4,2 km/h (1 Bft)
03.01.2015 15:00 2,4 C 1,7 C 95 % 1017,6 hPa 0,0 l/m 0 min 0 min 52 W/m 4,2 km/h (1 Bft)
03.01.2015 15:02 2,4 C 1,7 C 95 % 1017,5 hPa 0,0 l/m 0 min 0 min 48 W/m 4,2 km/h (1 Bft)
03.01.2015 15:04 2,4 C 1,7 C 95 % 1017,6 hPa 0,0 l/m 0 min 0 min 44 W/m 8,4 km/h (2 Bft)
03.01.2015 15:06 2,4 C 1,7 C 95 % 1017,5 hPa 0,0 l/m 0 min 0 min 40 W/m 10,5 km/h (2 Bft)
03.01.2015 15:08 2,4 C 1,7 C 95 % 1017,4 hPa 0,0 l/m 0 min 0 min 35 W/m 6,3 km/h (2 Bft)
03.01.2015 15:10 2,4 C 1,7 C 95 % 1017,4 hPa 0,0 l/m 0 min 0 min 32 W/m 12,6 km/h (3 Bft)
03.01.2015 15:12 2,4 C 1,7 C 95 % 1017,3 hPa 0,0 l/m 0 min 0 min 34 W/m 8,4 km/h (2 Bft)
03.01.2015 15:14 2,4 C 1,7 C 95 % 1017,3 hPa 0,0 l/m 0 min 0 min 36 W/m 8,4 km/h (2 Bft)
03.01.2015 15:16 2,4 C 1,7 C 95 % 1017,4 hPa 0,0 l/m 0 min 0 min 36 W/m 10,5 km/h (2 Bft)
03.01.2015 15:18 2,4 C 1,7 C 95 % 1017,3 hPa 0,0 l/m 0 min 0 min 36 W/m 10,5 km/h (2 Bft)
03.01.2015 15:20 2,5 C 1,7 C 96 % 1017,3 hPa 0,0 l/m 0 min 0 min 32 W/m 8,4 km/h (2 Bft)
03.01.2015 15:22 2,4 C 1,7 C 96 % 1017,2 hPa 0,0 l/m 0 min 0 min 28 W/m 8,4 km/h (2 Bft)
03.01.2015 15:24 2,5 C 1,7 C 96 % 1017,3 hPa 0,0 l/m 0 min 0 min 24 W/m 8,4 km/h (2 Bft)
03.01.2015 15:26 2,5 C 1,7 C 96 % 1017,2 hPa 0,0 l/m 0 min 0 min 22 W/m 8,4 km/h (2 Bft)
03.01.2015 15:28 2,5 C 1,7 C 96 % 1017,0 hPa 0,0 l/m 0 min 0 min 20 W/m 8,4 km/h (2 Bft)
03.01.2015 15:30 2,5 C 1,7 C 96 % 1016,9 hPa 0,0 l/m 0 min 0 min 19 W/m 14,6 km/h (3 Bft)
03.01.2015 15:32 2,5 C 1,7 C 96 % 1016,9 hPa 0,0 l/m 0 min 0 min 19 W/m 12,6 km/h (3 Bft)
03.01.2015 15:34 2,5 C 1,7 C 96 % 1016,9 hPa 0,0 l/m 0 min 0 min 18 W/m 12,6 km/h (3 Bft)
03.01.2015 15:36 2,5 C 1,7 C 96 % 1016,8 hPa 0,0 l/m 0 min 0 min 16 W/m 8,4 km/h (2 Bft)
03.01.2015 15:38 2,5 C 1,7 C 96 % 1016,7 hPa 0,0 l/m 0 min 0 min 16 W/m 6,3 km/h (2 Bft)
03.01.2015 15:40 2,5 C 1,7 C 96 % 1016,7 hPa 0,0 l/m 0 min 0 min 14 W/m 6,3 km/h (2 Bft)
03.01.2015 15:42 2,5 C 1,7 C 96 % 1016,8 hPa 0,0 l/m 0 min 0 min 12 W/m 10,5 km/h (2 Bft)
03.01.2015 15:44 2,5 C 1,7 C 96 % 1016,9 hPa 0,0 l/m 0 min 0 min 11 W/m 4,2 km/h (1 Bft)
03.01.2015 15:46 2,5 C 1,7 C 96 % 1016,9 hPa 0,0 l/m 0 min 0 min 10 W/m 6,3 km/h (2 Bft)
03.01.2015 15:48 2,5 C 1,7 C 96 % 1017,0 hPa 0,0 l/m 0 min 0 min 9 W/m 8,4 km/h (2 Bft)
03.01.2015 15:50 2,5 C 1,7 C 96 % 1017,0 hPa 0,0 l/m 0 min 0 min 9 W/m 6,3 km/h (2 Bft)
03.01.2015 15:52 2,5 C 1,7 C 96 % 1017,0 hPa 0,0 l/m 0 min 0 min 7 W/m 6,3 km/h (2 Bft)
03.01.2015 15:54 2,5 C 1,7 C 96 % 1017,0 hPa 0,0 l/m 0 min 2 min 7 W/m 6,3 km/h (2 Bft)
03.01.2015 15:56 2,5 C 1,7 C 96 % 1016,9 hPa 0,0 l/m 0 min 2 min 5 W/m 6,3 km/h (2 Bft)
03.01.2015 15:58 2,5 C 1,7 C 96 % 1016,9 hPa 0,0 l/m 0 min 2 min 5 W/m 10,5 km/h (2 Bft)
03.01.2015 16:00 2,5 C 1,7 C 96 % 1017,0 hPa 0,0 l/m 0 min 2 min 5 W/m 10,5 km/h (2 Bft)
03.01.2015 16:02 2,5 C 1,7 C 96 % 1017,0 hPa 0,0 l/m 0 min 2 min 5 W/m 6,3 km/h (2 Bft)
03.01.2015 16:04 2,5 C 1,7 C 96 % 1017,0 hPa 0,2 l/m 0 min 2 min 1 W/m 6,3 km/h (2 Bft)
03.01.2015 16:06 2,5 C 1,7 C 96 % 1017,0 hPa 0,0 l/m 0 min 2 min 0 W/m 6,3 km/h (2 Bft)
03.01.2015 16:08 2,6 C 1,7 C 96 % 1016,9 hPa 0,0 l/m 0 min 2 min 0 W/m 6,3 km/h (2 Bft)
03.01.2015 16:10 2,6 C 1,7 C 96 % 1016,8 hPa 0,0 l/m 0 min 2 min 0 W/m 6,3 km/h (2 Bft)
03.01.2015 16:12 2,6 C 1,7 C 96 % 1016,8 hPa 0,0 l/m 0 min 2 min 0 W/m 6,3 km/h (2 Bft)
03.01.2015 16:14 2,6 C 1,7 C 96 % 1016,7 hPa 0,0 l/m 0 min 2 min 0 W/m 6,3 km/h (2 Bft)
03.01.2015 16:16 2,6 C 1,7 C 96 % 1016,6 hPa 0,0 l/m 0 min 2 min 0 W/m 8,4 km/h (2 Bft)
03.01.2015 16:18 2,6 C 1,7 C 96 % 1016,5 hPa 0,0 l/m 0 min 2 min 0 W/m 8,4 km/h (2 Bft)
03.01.2015 16:20 2,6 C 1,7 C 96 % 1016,5 hPa 0,0 l/m 0 min 2 min 0 W/m 6,3 km/h (2 Bft)
03.01.2015 16:22 2,6 C 1,7 C 96 % 1016,4 hPa 0,0 l/m 0 min 2 min 0 W/m 10,5 km/h (2 Bft)
03.01.2015 16:24 2,6 C 1,7 C 96 % 1016,5 hPa 0,0 l/m 0 min 2 min 0 W/m 8,4 km/h (2 Bft)
03.01.2015 16:26 2,6 C 1,7 C 96 % 1016,5 hPa 0,0 l/m 0 min 2 min 0 W/m 6,3 km/h (2 Bft)
03.01.2015 16:28 2,6 C 1,7 C 96 % 1016,5 hPa 0,2 l/m 0 min 2 min 0 W/m 6,3 km/h (2 Bft)
03.01.2015 16:30 2,6 C 1,7 C 96 % 1016,5 hPa 0,0 l/m 0 min 2 min 0 W/m 6,3 km/h (2 Bft)
03.01.2015 16:32 2,6 C 1,7 C 96 % 1016,5 hPa 0,0 l/m 0 min 2 min 0 W/m 8,4 km/h (2 Bft)
03.01.2015 16:34 2,6 C 1,7 C 96 % 1016,4 hPa 0,0 l/m 0 min 2 min 0 W/m 8,4 km/h (2 Bft)
03.01.2015 16:36 2,6 C 1,7 C 96 % 1016,4 hPa 0,0 l/m 0 min 2 min 0 W/m 8,4 km/h (2 Bft)
03.01.2015 16:38 2,6 C 1,7 C 96 % 1016,4 hPa 0,0 l/m 0 min 2 min 0 W/m 6,3 km/h (2 Bft)
03.01.2015 16:40 2,6 C 1,7 C 96 % 1016,4 hPa 0,0 l/m 0 min 2 min 0 W/m 6,3 km/h (2 Bft)
03.01.2015 16:42 2,6 C 1,7 C 96 % 1016,4 hPa 0,0 l/m 0 min 2 min 0 W/m 6,3 km/h (2 Bft)
03.01.2015 16:44 2,6 C 1,7 C 96 % 1016,4 hPa 0,0 l/m 0 min 2 min 0 W/m 4,2 km/h (1 Bft)
03.01.2015 16:46 2,6 C 1,7 C 96 % 1016,6 hPa 0,0 l/m 0 min 2 min 0 W/m 8,4 km/h (2 Bft)
03.01.2015 16:48 2,6 C 1,7 C 96 % 1016,7 hPa 0,2 l/m 0 min 2 min 0 W/m 10,5 km/h (2 Bft)
03.01.2015 16:50 2,6 C 1,7 C 96 % 1016,9 hPa 0,0 l/m 0 min 2 min 0 W/m 6,3 km/h (2 Bft)
03.01.2015 16:52 2,6 C 1,1 C 96 % 1016,9 hPa 0,0 l/m 0 min 2 min 0 W/m 6,3 km/h (2 Bft)
03.01.2015 16:54 2,6 C 1,1 C 96 % 1016,9 hPa 0,2 l/m 0 min 2 min 0 W/m 4,2 km/h (1 Bft)
03.01.2015 16:56 2,6 C 1,1 C 96 % 1016,7 hPa 0,2 l/m 0 min 2 min 0 W/m 4,2 km/h (1 Bft)
03.01.2015 16:58 2,6 C 1,1 C 96 % 1016,5 hPa 0,2 l/m 0 min 2 min 0 W/m 4,2 km/h (1 Bft)
03.01.2015 17:00 2,6 C 1,1 C 96 % 1016,5 hPa 0,0 l/m 0 min 2 min 0 W/m 4,2 km/h (1 Bft)
03.01.2015 17:02 2,5 C 1,1 C 96 % 1016,6 hPa 0,2 l/m 0 min 2 min 0 W/m 6,3 km/h (2 Bft)
03.01.2015 17:04 2,5 C 1,1 C 96 % 1016,5 hPa 0,2 l/m 0 min 2 min 0 W/m 8,4 km/h (2 Bft)
03.01.2015 17:06 2,5 C 0,6 C 96 % 1016,6 hPa 0,2 l/m 0 min 2 min 0 W/m 6,3 km/h (2 Bft)
03.01.2015 17:08 2,5 C 0,6 C 96 % 1016,6 hPa 0,2 l/m 0 min 2 min 0 W/m 4,2 km/h (1 Bft)
03.01.2015 17:10 2,5 C 0,6 C 96 % 1016,7 hPa 0,2 l/m 0 min 2 min 0 W/m 4,2 km/h (1 Bft)
03.01.2015 17:12 2,4 C 0,0 C 96 % 1016,6 hPa 0,2 l/m 0 min 2 min 0 W/m 4,2 km/h (1 Bft)
03.01.2015 17:14 2,4 C 0,6 C 96 % 1016,6 hPa 0,0 l/m 0 min 2 min 0 W/m 6,3 km/h (2 Bft)
03.01.2015 17:16 2,4 C 0,6 C 96 % 1016,6 hPa 0,2 l/m 0 min 0 min 0 W/m 8,4 km/h (2 Bft)
03.01.2015 17:18 2,4 C 0,6 C 96 % 1016,4 hPa 0,2 l/m 0 min 0 min 0 W/m 8,4 km/h (2 Bft)
03.01.2015 17:20 2,3 C 0,6 C 96 % 1016,3 hPa 0,0 l/m 0 min 2 min 0 W/m 4,2 km/h (1 Bft)
03.01.2015 17:22 2,3 C 0,0 C 96 % 1016,4 hPa 0,0 l/m 0 min 0 min 0 W/m 4,2 km/h (1 Bft)
03.01.2015 17:24 2,3 C 0,0 C 96 % 1016,3 hPa 0,2 l/m 0 min 0 min 0 W/m 4,2 km/h (1 Bft)
03.01.2015 17:26 2,3 C 0,0 C 96 % 1016,3 hPa 0,2 l/m 0 min 0 min 0 W/m 4,2 km/h (1 Bft)
03.01.2015 17:28 2,2 C 0,0 C 96 % 1016,4 hPa 0,0 l/m 0 min 2 min 0 W/m 4,2 km/h (1 Bft)
03.01.2015 17:30 2,2 C 0,0 C 96 % 1016,3 hPa 0,0 l/m 0 min 2 min 0 W/m 4,2 km/h (1 Bft)
03.01.2015 17:32 2,2 C -0,6 C 96 % 1016,3 hPa 0,2 l/m 0 min 2 min 0 W/m 6,3 km/h (2 Bft)
03.01.2015 17:34 2,2 C -0,6 C 96 % 1016,3 hPa 0,2 l/m 0 min 2 min 0 W/m 6,3 km/h (2 Bft)
03.01.2015 17:36 2,1 C -1,1 C 96 % 1016,4 hPa 0,0 l/m 0 min 2 min 0 W/m 4,2 km/h (1 Bft)
03.01.2015 17:38 2,1 C -1,1 C 96 % 1016,5 hPa 0,0 l/m 0 min 2 min 0 W/m 4,2 km/h (1 Bft)
03.01.2015 17:40 2,0 C -1,1 C 96 % 1016,5 hPa 0,2 l/m 0 min 2 min 0 W/m 6,3 km/h (2 Bft)
03.01.2015 17:42 2,0 C -1,1 C 96 % 1016,6 hPa 0,0 l/m 0 min 2 min 0 W/m 4,2 km/h (1 Bft)
03.01.2015 17:44 1,9 C -1,1 C 96 % 1016,5 hPa 0,0 l/m 0 min 2 min 0 W/m 4,2 km/h (1 Bft)
03.01.2015 17:46 1,9 C -1,1 C 96 % 1016,6 hPa 0,0 l/m 0 min 0 min 0 W/m 4,2 km/h (1 Bft)
03.01.2015 17:48 1,8 C -1,1 C 96 % 1016,7 hPa 0,2 l/m 0 min 0 min 0 W/m 2,1 km/h (1 Bft)
03.01.2015 17:50 1,8 C -1,1 C 96 % 1016,6 hPa 0,0 l/m 0 min 0 min 0 W/m 4,2 km/h (1 Bft)
03.01.2015 17:52 1,8 C -1,1 C 96 % 1016,5 hPa 0,0 l/m 0 min 0 min 0 W/m 4,2 km/h (1 Bft)
03.01.2015 17:54 1,7 C -1,1 C 96 % 1016,6 hPa 0,0 l/m 0 min 2 min 0 W/m 4,2 km/h (1 Bft)
03.01.2015 17:56 1,7 C -1,1 C 96 % 1016,6 hPa 0,0 l/m 0 min 2 min 0 W/m 0,0 km/h (0 Bft)
03.01.2015 17:58 1,6 C -1,1 C 96 % 1016,8 hPa 0,2 l/m 0 min 2 min 0 W/m 2,1 km/h (1 Bft)
03.01.2015 18:00 1,6 C -1,1 C 96 % 1016,9 hPa 0,0 l/m 0 min 2 min 0 W/m 2,1 km/h (1 Bft)
03.01.2015 18:02 1,6 C -1,1 C 96 % 1016,8 hPa 0,0 l/m 0 min 2 min 0 W/m 4,2 km/h (1 Bft)
03.01.2015 18:06 1,5 C -1,1 C 96 % 1017,0 hPa 0,0 l/m 0 min 2 min 0 W/m 4,2 km/h (1 Bft)
03.01.2015 18:08 1,4 C -1,1 C 96 % 1017,0 hPa 0,0 l/m 0 min 2 min 0 W/m 4,2 km/h (1 Bft)
03.01.2015 18:10 1,4 C -1,1 C 96 % 1016,9 hPa 0,0 l/m 0 min 2 min 0 W/m 2,1 km/h (1 Bft)
03.01.2015 18:12 1,4 C -1,1 C 96 % 1016,9 hPa 0,0 l/m 0 min 2 min 0 W/m 4,2 km/h (1 Bft)
03.01.2015 18:14 1,3 C -0,6 C 96 % 1016,9 hPa 0,0 l/m 0 min 2 min 0 W/m 2,1 km/h (1 Bft)
03.01.2015 18:16 1,3 C -0,6 C 96 % 1016,9 hPa 0,0 l/m 0 min 2 min 0 W/m 4,2 km/h (1 Bft)
03.01.2015 18:18 1,3 C -0,6 C 96 % 1016,9 hPa 0,0 l/m 0 min 2 min 0 W/m 4,2 km/h (1 Bft)
03.01.2015 18:20 1,3 C -0,6 C 96 % 1017,0 hPa 0,2 l/m 0 min 2 min 0 W/m 2,1 km/h (1 Bft)
03.01.2015 18:22 1,2 C -0,6 C 96 % 1017,0 hPa 0,0 l/m 0 min 2 min 0 W/m 2,1 km/h (1 Bft)
03.01.2015 18:24 1,2 C -0,6 C 96 % 1017,0 hPa 0,0 l/m 0 min 2 min 0 W/m 4,2 km/h (1 Bft)
03.01.2015 18:26 1,2 C -0,6 C 96 % 1017,1 hPa 0,0 l/m 0 min 2 min 0 W/m 4,2 km/h (1 Bft)
03.01.2015 18:28 1,2 C -0,6 C 96 % 1017,1 hPa 0,0 l/m 0 min 2 min 0 W/m 4,2 km/h (1 Bft)
03.01.2015 18:30 1,2 C 0,0 C 96 % 1017,1 hPa 0,0 l/m 0 min 2 min 0 W/m 2,1 km/h (1 Bft)
03.01.2015 18:32 1,2 C 0,0 C 96 % 1017,1 hPa 0,0 l/m 0 min 2 min 0 W/m 4,2 km/h (1 Bft)
03.01.2015 18:34 1,2 C 0,0 C 96 % 1017,2 hPa 0,0 l/m 0 min 2 min 0 W/m 4,2 km/h (1 Bft)
03.01.2015 18:36 1,1 C 0,0 C 96 % 1017,2 hPa 0,0 l/m 0 min 2 min 0 W/m 2,1 km/h (1 Bft)
03.01.2015 18:38 1,1 C 0,0 C 96 % 1017,3 hPa 0,0 l/m 0 min 2 min 0 W/m 2,1 km/h (1 Bft)
03.01.2015 18:40 1,1 C 0,0 C 96 % 1017,3 hPa 0,0 l/m 0 min 2 min 0 W/m 2,1 km/h (1 Bft)
03.01.2015 18:42 1,1 C 0,0 C 96 % 1017,3 hPa 0,0 l/m 0 min 2 min 0 W/m 2,1 km/h (1 Bft)
03.01.2015 18:44 1,1 C 0,0 C 96 % 1017,3 hPa 0,0 l/m 0 min 2 min 0 W/m 2,1 km/h (1 Bft)
03.01.2015 18:46 1,1 C 0,0 C 96 % 1017,3 hPa 0,0 l/m 0 min 2 min 0 W/m 2,1 km/h (1 Bft)
03.01.2015 18:48 1,1 C 0,0 C 96 % 1017,5 hPa 0,0 l/m 0 min 2 min 0 W/m 2,1 km/h (1 Bft)
03.01.2015 18:50 1,1 C 0,0 C 96 % 1017,4 hPa 0,2 l/m 0 min 2 min 0 W/m 2,1 km/h (1 Bft)
03.01.2015 18:52 1,1 C 0,0 C 96 % 1017,5 hPa 0,0 l/m 0 min 2 min 0 W/m 2,1 km/h (1 Bft)
03.01.2015 18:54 1,1 C 0,0 C 96 % 1017,6 hPa 0,0 l/m 0 min 2 min 0 W/m 2,1 km/h (1 Bft)
03.01.2015 18:56 1,0 C 0,0 C 96 % 1017,7 hPa 0,0 l/m 0 min 2 min 0 W/m 2,1 km/h (1 Bft)
03.01.2015 18:58 1,0 C 0,0 C 96 % 1017,9 hPa 0,0 l/m 0 min 2 min 0 W/m 2,1 km/h (1 Bft)
03.01.2015 19:00 1,0 C 0,0 C 96 % 1017,9 hPa 0,0 l/m 0 min 2 min 0 W/m 4,2 km/h (1 Bft)
03.01.2015 19:05 1,0 C 0,0 C 96 % 1018,0 hPa 0,0 l/m 0 min 2 min 0 W/m 4,2 km/h (1 Bft)
03.01.2015 19:10 1,0 C 0,0 C 96 % 1018,4 hPa 0,0 l/m 0 min 2 min 0 W/m 4,2 km/h (1 Bft)
03.01.2015 19:15 1,0 C 0,0 C 96 % 1018,5 hPa 0,2 l/m 0 min 2 min 0 W/m 6,3 km/h (2 Bft)
03.01.2015 19:20 1,0 C 0,0 C 96 % 1018,7 hPa 0,0 l/m 0 min 2 min 0 W/m 6,3 km/h (2 Bft)
03.01.2015 19:24 1,0 C 0,0 C 96 % 1018,8 hPa 0,0 l/m 0 min 2 min 0 W/m 6,3 km/h (2 Bft)
03.01.2015 19:26 1,0 C 0,0 C 96 % 1018,8 hPa 0,0 l/m 0 min 2 min 0 W/m 6,3 km/h (2 Bft)
03.01.2015 19:28 1,0 C 0,0 C 96 % 1018,8 hPa 0,0 l/m 0 min 2 min 0 W/m 2,1 km/h (1 Bft)
03.01.2015 19:30 1,0 C 0,0 C 96 % 1018,9 hPa 0,2 l/m 0 min 2 min 0 W/m 4,2 km/h (1 Bft)
03.01.2015 19:32 1,0 C 0,0 C 96 % 1018,9 hPa 0,0 l/m 0 min 2 min 0 W/m 4,2 km/h (1 Bft)
03.01.2015 19:34 1,0 C 0,0 C 96 % 1018,8 hPa 0,0 l/m 0 min 2 min 0 W/m 4,2 km/h (1 Bft)
03.01.2015 19:36 1,0 C 0,0 C 96 % 1018,8 hPa 0,0 l/m 0 min 2 min 0 W/m 6,3 km/h (2 Bft)
03.01.2015 19:38 1,0 C 0,0 C 96 % 1018,9 hPa 0,0 l/m 0 min 2 min 0 W/m 2,1 km/h (1 Bft)
03.01.2015 19:40 1,0 C 0,0 C 96 % 1018,8 hPa 0,0 l/m 0 min 2 min 0 W/m 2,1 km/h (1 Bft)
03.01.2015 19:42 1,0 C 0,0 C 96 % 1018,8 hPa 0,0 l/m 0 min 2 min 0 W/m 4,2 km/h (1 Bft)
03.01.2015 19:44 1,0 C 0,0 C 96 % 1018,9 hPa 0,0 l/m 0 min 2 min 0 W/m 4,2 km/h (1 Bft)
03.01.2015 19:46 1,0 C 0,0 C 96 % 1018,9 hPa 0,0 l/m 0 min 2 min 0 W/m 2,1 km/h (1 Bft)
03.01.2015 19:48 1,0 C 0,0 C 96 % 1018,9 hPa 0,0 l/m 0 min 2 min 0 W/m 6,3 km/h (2 Bft)
03.01.2015 19:50 1,0 C 0,0 C 96 % 1018,9 hPa 0,0 l/m 0 min 2 min 0 W/m 6,3 km/h (2 Bft)
03.01.2015 19:52 1,0 C 0,0 C 96 % 1018,8 hPa 0,0 l/m 0 min 2 min 0 W/m 4,2 km/h (1 Bft)
03.01.2015 19:54 1,0 C 0,0 C 96 % 1018,9 hPa 0,0 l/m 0 min 2 min 0 W/m 4,2 km/h (1 Bft)
03.01.2015 19:56 1,0 C 0,0 C 96 % 1019,0 hPa 0,0 l/m 0 min 2 min 0 W/m 6,3 km/h (2 Bft)
03.01.2015 19:58 1,0 C 0,0 C 96 % 1018,9 hPa 0,0 l/m 0 min 2 min 0 W/m 6,3 km/h (2 Bft)
03.01.2015 20:00 1,0 C 0,0 C 96 % 1019,0 hPa 0,0 l/m 0 min 0 min 0 W/m 4,2 km/h (1 Bft)
03.01.2015 20:02 1,0 C 0,0 C 96 % 1019,0 hPa 0,0 l/m 0 min 0 min 0 W/m 6,3 km/h (2 Bft)
03.01.2015 20:04 1,0 C 0,0 C 96 % 1018,9 hPa 0,0 l/m 0 min 0 min 0 W/m 6,3 km/h (2 Bft)
03.01.2015 20:06 1,0 C 0,0 C 96 % 1018,9 hPa 0,0 l/m 0 min 0 min 0 W/m 6,3 km/h (2 Bft)
03.01.2015 20:08 1,1 C 0,0 C 96 % 1018,9 hPa 0,0 l/m 0 min 0 min 0 W/m 6,3 km/h (2 Bft)
03.01.2015 20:10 1,1 C 0,0 C 96 % 1018,9 hPa 0,0 l/m 0 min 0 min 0 W/m 4,2 km/h (1 Bft)
03.01.2015 20:12 1,1 C 0,0 C 96 % 1018,9 hPa 0,0 l/m 0 min 0 min 0 W/m 4,2 km/h (1 Bft)
03.01.2015 20:14 1,1 C 0,0 C 96 % 1018,8 hPa 0,0 l/m 0 min 0 min 0 W/m 6,3 km/h (2 Bft)
03.01.2015 20:16 1,1 C 0,0 C 96 % 1018,8 hPa 0,0 l/m 0 min 0 min 0 W/m 6,3 km/h (2 Bft)
03.01.2015 20:18 1,1 C 0,0 C 96 % 1019,0 hPa 0,0 l/m 0 min 0 min 0 W/m 6,3 km/h (2 Bft)
03.01.2015 20:20 1,1 C 0,0 C 96 % 1019,1 hPa 0,2 l/m 0 min 0 min 0 W/m 4,2 km/h (1 Bft)
03.01.2015 20:22 1,1 C 0,0 C 96 % 1019,2 hPa 0,0 l/m 0 min 0 min 0 W/m 4,2 km/h (1 Bft)
03.01.2015 20:24 1,1 C 0,0 C 96 % 1019,3 hPa 0,0 l/m 0 min 0 min 0 W/m 4,2 km/h (1 Bft)
03.01.2015 20:26 1,1 C 0,0 C 96 % 1019,3 hPa 0,0 l/m 0 min 0 min 0 W/m 4,2 km/h (1 Bft)
03.01.2015 20:28 1,1 C 0,0 C 96 % 1019,3 hPa 0,0 l/m 0 min 0 min 0 W/m 4,2 km/h (1 Bft)
03.01.2015 20:30 1,1 C 0,0 C 96 % 1019,2 hPa 0,0 l/m 0 min 0 min 0 W/m 6,3 km/h (2 Bft)
03.01.2015 20:32 1,1 C 0,0 C 96 % 1019,2 hPa 0,0 l/m 0 min 0 min 0 W/m 6,3 km/h (2 Bft)
03.01.2015 20:34 1,1 C 0,0 C 96 % 1019,3 hPa 0,0 l/m 0 min 0 min 0 W/m 4,2 km/h (1 Bft)
03.01.2015 20:36 1,1 C 0,0 C 96 % 1019,4 hPa 0,0 l/m 0 min 0 min 0 W/m 6,3 km/h (2 Bft)
03.01.2015 20:38 1,1 C 0,0 C 96 % 1019,5 hPa 0,0 l/m 0 min 2 min 0 W/m 8,4 km/h (2 Bft)
03.01.2015 20:40 1,1 C 0,0 C 96 % 1019,4 hPa 0,0 l/m 0 min 2 min 0 W/m 10,5 km/h (2 Bft)
03.01.2015 20:42 1,1 C 0,0 C 96 % 1019,7 hPa 0,0 l/m 0 min 2 min 0 W/m 6,3 km/h (2 Bft)
03.01.2015 20:44 1,1 C 0,0 C 96 % 1019,8 hPa 0,0 l/m 0 min 2 min 0 W/m 6,3 km/h (2 Bft)
03.01.2015 20:46 1,1 C 0,0 C 96 % 1019,9 hPa 0,0 l/m 0 min 2 min 0 W/m 6,3 km/h (2 Bft)
03.01.2015 20:48 1,1 C 0,0 C 96 % 1020,0 hPa 0,0 l/m 0 min 2 min 0 W/m 6,3 km/h (2 Bft)
03.01.2015 20:50 1,1 C 0,0 C 96 % 1020,2 hPa 0,0 l/m 0 min 2 min 0 W/m 6,3 km/h (2 Bft)
03.01.2015 20:52 1,1 C 0,0 C 96 % 1020,2 hPa 0,0 l/m 0 min 2 min 0 W/m 6,3 km/h (2 Bft)
03.01.2015 20:54 1,1 C 0,6 C 96 % 1020,1 hPa 0,0 l/m 0 min 2 min 0 W/m 6,3 km/h (2 Bft)
03.01.2015 20:56 1,1 C 0,6 C 96 % 1020,2 hPa 0,0 l/m 0 min 2 min 0 W/m 4,2 km/h (1 Bft)
03.01.2015 20:58 1,1 C 0,6 C 96 % 1020,3 hPa 0,0 l/m 0 min 2 min 0 W/m 6,3 km/h (2 Bft)
03.01.2015 21:00 1,1 C 0,6 C 96 % 1020,4 hPa 0,0 l/m 0 min 2 min 0 W/m 8,4 km/h (2 Bft)
03.01.2015 21:02 1,1 C 0,6 C 96 % 1020,4 hPa 0,0 l/m 0 min 2 min 0 W/m 6,3 km/h (2 Bft)
03.01.2015 21:04 1,2 C 0,6 C 96 % 1020,4 hPa 0,0 l/m 0 min 2 min 0 W/m 6,3 km/h (2 Bft)
03.01.2015 21:06 1,2 C 0,6 C 96 % 1020,4 hPa 0,0 l/m 0 min 2 min 0 W/m 8,4 km/h (2 Bft)
03.01.2015 21:08 1,3 C 0,6 C 96 % 1020,5 hPa 0,0 l/m 0 min 2 min 0 W/m 8,4 km/h (2 Bft)
03.01.2015 21:10 1,3 C 0,6 C 96 % 1020,5 hPa 0,0 l/m 0 min 2 min 0 W/m 14,6 km/h (3 Bft)
03.01.2015 21:12 1,3 C 0,6 C 96 % 1020,4 hPa 0,0 l/m 0 min 2 min 0 W/m 12,6 km/h (3 Bft)
03.01.2015 21:14 1,4 C 0,6 C 97 % 1020,4 hPa 0,0 l/m 0 min 2 min 0 W/m 8,4 km/h (2 Bft)
03.01.2015 21:16 1,4 C 0,6 C 97 % 1020,4 hPa 0,0 l/m 0 min 2 min 0 W/m 10,5 km/h (2 Bft)
03.01.2015 21:18 1,4 C 0,6 C 97 % 1020,7 hPa 0,0 l/m 0 min 2 min 0 W/m 10,5 km/h (2 Bft)
03.01.2015 21:20 1,4 C 0,6 C 97 % 1020,9 hPa 0,0 l/m 0 min 2 min 0 W/m 10,5 km/h (2 Bft)
03.01.2015 21:22 1,5 C 0,6 C 97 % 1021,1 hPa 0,0 l/m 0 min 2 min 0 W/m 12,6 km/h (3 Bft)
03.01.2015 21:24 1,5 C 0,6 C 97 % 1021,2 hPa 0,0 l/m 0 min 2 min 0 W/m 12,6 km/h (3 Bft)
03.01.2015 21:26 1,6 C 1,1 C 97 % 1021,3 hPa 0,0 l/m 0 min 2 min 0 W/m 10,5 km/h (2 Bft)
03.01.2015 21:28 1,6 C 1,1 C 97 % 1021,3 hPa 0,0 l/m 0 min 2 min 0 W/m 12,6 km/h (3 Bft)
03.01.2015 21:30 1,6 C 1,1 C 97 % 1021,3 hPa 0,0 l/m 0 min 2 min 0 W/m 8,4 km/h (2 Bft)
03.01.2015 21:32 1,7 C 1,1 C 97 % 1021,4 hPa 0,0 l/m 0 min 2 min 0 W/m 10,5 km/h (2 Bft)
03.01.2015 21:34 1,7 C 1,1 C 97 % 1021,4 hPa 0,0 l/m 0 min 2 min 0 W/m 10,5 km/h (2 Bft)
03.01.2015 21:36 1,7 C 1,1 C 97 % 1021,4 hPa 0,0 l/m 0 min 2 min 0 W/m 10,5 km/h (2 Bft)
03.01.2015 21:38 1,7 C 1,1 C 97 % 1021,4 hPa 0,0 l/m 0 min 2 min 0 W/m 14,6 km/h (3 Bft)
03.01.2015 21:40 1,7 C 1,1 C 97 % 1021,5 hPa 0,0 l/m 0 min 2 min 0 W/m 10,5 km/h (2 Bft)
03.01.2015 21:42 1,8 C 1,1 C 97 % 1021,5 hPa 0,0 l/m 0 min 2 min 0 W/m 10,5 km/h (2 Bft)
03.01.2015 21:44 1,8 C 1,1 C 97 % 1021,5 hPa 0,0 l/m 0 min 2 min 0 W/m 10,5 km/h (2 Bft)
03.01.2015 21:46 1,8 C 1,1 C 97 % 1021,5 hPa 0,0 l/m 0 min 2 min 0 W/m 12,6 km/h (3 Bft)
03.01.2015 21:48 1,8 C 1,1 C 97 % 1021,5 hPa 0,0 l/m 0 min 2 min 0 W/m 8,4 km/h (2 Bft)
03.01.2015 21:50 1,8 C 1,1 C 97 % 1021,5 hPa 0,0 l/m 0 min 2 min 0 W/m 10,5 km/h (2 Bft)
03.01.2015 21:52 1,8 C 1,1 C 97 % 1021,5 hPa 0,0 l/m 0 min 2 min 0 W/m 10,5 km/h (2 Bft)
03.01.2015 21:54 1,9 C 1,1 C 97 % 1021,5 hPa 0,0 l/m 0 min 2 min 0 W/m 12,6 km/h (3 Bft)
03.01.2015 21:56 1,9 C 1,1 C 97 % 1021,5 hPa 0,0 l/m 0 min 2 min 0 W/m 10,5 km/h (2 Bft)
03.01.2015 21:58 1,9 C 1,1 C 97 % 1021,6 hPa 0,0 l/m 0 min 2 min 0 W/m 10,5 km/h (2 Bft)
03.01.2015 22:00 1,9 C 1,1 C 97 % 1021,6 hPa 0,0 l/m 0 min 2 min 0 W/m 10,5 km/h (2 Bft)
03.01.2015 22:02 1,9 C 1,1 C 97 % 1021,7 hPa 0,0 l/m 0 min 2 min 0 W/m 12,6 km/h (3 Bft)
03.01.2015 22:04 1,9 C 1,1 C 97 % 1021,8 hPa 0,0 l/m 0 min 2 min 0 W/m 10,5 km/h (2 Bft)
03.01.2015 22:06 1,9 C 1,1 C 97 % 1021,7 hPa 0,0 l/m 0 min 2 min 0 W/m 10,5 km/h (2 Bft)
03.01.2015 22:08 1,9 C 1,1 C 97 % 1021,8 hPa 0,0 l/m 0 min 2 min 0 W/m 12,6 km/h (3 Bft)
03.01.2015 22:10 1,9 C 1,1 C 97 % 1021,7 hPa 0,0 l/m 0 min 2 min 0 W/m 16,7 km/h (3 Bft)
03.01.2015 22:12 2,0 C 1,1 C 97 % 1021,7 hPa 0,0 l/m 0 min 2 min 0 W/m 14,6 km/h (3 Bft)
03.01.2015 22:14 2,0 C 1,1 C 97 % 1021,8 hPa 0,0 l/m 0 min 2 min 0 W/m 10,5 km/h (2 Bft)
03.01.2015 22:16 2,0 C 1,1 C 97 % 1021,9 hPa 0,0 l/m 0 min 2 min 0 W/m 10,5 km/h (2 Bft)
03.01.2015 22:18 2,1 C 1,1 C 97 % 1021,9 hPa 0,0 l/m 0 min 2 min 0 W/m 6,3 km/h (2 Bft)
03.01.2015 22:20 2,1 C 1,1 C 97 % 1022,0 hPa 0,0 l/m 0 min 2 min 0 W/m 14,6 km/h (3 Bft)
03.01.2015 22:22 2,1 C 1,1 C 97 % 1022,0 hPa 0,0 l/m 0 min 2 min 0 W/m 12,6 km/h (3 Bft)
03.01.2015 22:24 2,1 C 1,1 C 97 % 1022,1 hPa 0,0 l/m 0 min 2 min 0 W/m 10,5 km/h (2 Bft)
03.01.2015 22:26 2,1 C 1,1 C 97 % 1022,2 hPa 0,0 l/m 0 min 2 min 0 W/m 12,6 km/h (3 Bft)
03.01.2015 22:28 2,2 C 1,1 C 97 % 1022,2 hPa 0,0 l/m 0 min 2 min 0 W/m 14,6 km/h (3 Bft)
03.01.2015 22:30 2,2 C 1,1 C 97 % 1022,3 hPa 0,0 l/m 0 min 2 min 0 W/m 16,7 km/h (3 Bft)
03.01.2015 22:32 2,2 C 1,1 C 97 % 1022,3 hPa 0,0 l/m 0 min 2 min 0 W/m 14,6 km/h (3 Bft)
03.01.2015 22:34 2,2 C 1,1 C 97 % 1022,2 hPa 0,0 l/m 0 min 2 min 0 W/m 18,8 km/h (3 Bft)
03.01.2015 22:36 2,2 C 1,1 C 97 % 1022,3 hPa 0,0 l/m 0 min 2 min 0 W/m 14,6 km/h (3 Bft)
03.01.2015 22:38 2,2 C 1,1 C 97 % 1022,3 hPa 0,0 l/m 0 min 2 min 0 W/m 14,6 km/h (3 Bft)
03.01.2015 22:40 2,2 C 1,1 C 97 % 1022,4 hPa 0,0 l/m 0 min 2 min 0 W/m 14,6 km/h (3 Bft)
03.01.2015 22:42 2,2 C 1,1 C 97 % 1022,4 hPa 0,0 l/m 0 min 2 min 0 W/m 14,6 km/h (3 Bft)
03.01.2015 22:44 2,3 C 1,1 C 97 % 1022,5 hPa 0,0 l/m 0 min 2 min 0 W/m 20,9 km/h (4 Bft)
03.01.2015 22:46 2,3 C 1,1 C 97 % 1022,5 hPa 0,0 l/m 0 min 2 min 0 W/m 14,6 km/h (3 Bft)
03.01.2015 22:48 2,3 C 1,1 C 97 % 1022,5 hPa 0,2 l/m 0 min 2 min 0 W/m 14,6 km/h (3 Bft)
03.01.2015 22:50 2,3 C 1,1 C 97 % 1022,6 hPa 0,0 l/m 0 min 2 min 0 W/m 14,6 km/h (3 Bft)
03.01.2015 22:52 2,3 C 1,1 C 97 % 1022,6 hPa 0,0 l/m 0 min 2 min 0 W/m 14,6 km/h (3 Bft)
03.01.2015 22:54 2,3 C 1,1 C 97 % 1022,7 hPa 0,0 l/m 0 min 2 min 0 W/m 12,6 km/h (3 Bft)
03.01.2015 22:56 2,3 C 1,1 C 97 % 1022,7 hPa 0,0 l/m 0 min 2 min 0 W/m 16,7 km/h (3 Bft)
03.01.2015 22:58 2,3 C 1,1 C 97 % 1022,7 hPa 0,0 l/m 0 min 2 min 0 W/m 10,5 km/h (2 Bft)
03.01.2015 23:00 2,3 C 1,1 C 97 % 1022,7 hPa 0,0 l/m 0 min 2 min 0 W/m 14,6 km/h (3 Bft)
03.01.2015 23:02 2,3 C 1,1 C 97 % 1022,8 hPa 0,0 l/m 0 min 2 min 0 W/m 14,6 km/h (3 Bft)
03.01.2015 23:04 2,3 C 1,1 C 97 % 1022,9 hPa 0,0 l/m 0 min 2 min 0 W/m 16,7 km/h (3 Bft)
03.01.2015 23:06 2,3 C 1,1 C 97 % 1022,9 hPa 0,0 l/m 0 min 2 min 0 W/m 14,6 km/h (3 Bft)
03.01.2015 23:08 2,3 C 1,1 C 97 % 1023,0 hPa 0,0 l/m 0 min 2 min 0 W/m 12,6 km/h (3 Bft)
03.01.2015 23:10 2,3 C 1,1 C 97 % 1023,0 hPa 0,0 l/m 0 min 2 min 0 W/m 20,9 km/h (4 Bft)
03.01.2015 23:12 2,3 C 1,1 C 97 % 1023,1 hPa 0,0 l/m 0 min 2 min 0 W/m 20,9 km/h (4 Bft)
03.01.2015 23:14 2,3 C 1,1 C 97 % 1023,2 hPa 0,0 l/m 0 min 2 min 0 W/m 14,6 km/h (3 Bft)
03.01.2015 23:16 2,3 C 1,1 C 97 % 1023,3 hPa 0,0 l/m 0 min 2 min 0 W/m 18,8 km/h (3 Bft)
03.01.2015 23:18 2,3 C 1,1 C 97 % 1023,2 hPa 0,0 l/m 0 min 2 min 0 W/m 18,8 km/h (3 Bft)
03.01.2015 23:20 2,3 C 1,1 C 97 % 1023,2 hPa 0,0 l/m 0 min 2 min 0 W/m 18,8 km/h (3 Bft)
03.01.2015 23:22 2,4 C 1,1 C 97 % 1023,3 hPa 0,0 l/m 0 min 2 min 0 W/m 12,6 km/h (3 Bft)
03.01.2015 23:24 2,4 C 1,1 C 97 % 1023,3 hPa 0,0 l/m 0 min 2 min 0 W/m 14,6 km/h (3 Bft)
03.01.2015 23:26 2,4 C 1,1 C 97 % 1023,3 hPa 0,0 l/m 0 min 2 min 0 W/m 14,6 km/h (3 Bft)
03.01.2015 23:28 2,3 C 1,1 C 97 % 1023,4 hPa 0,0 l/m 0 min 2 min 0 W/m 14,6 km/h (3 Bft)
03.01.2015 23:30 2,4 C 1,1 C 97 % 1023,4 hPa 0,0 l/m 0 min 2 min 0 W/m 14,6 km/h (3 Bft)
03.01.2015 23:32 2,4 C 1,7 C 97 % 1023,5 hPa 0,0 l/m 0 min 2 min 0 W/m 16,7 km/h (3 Bft)
03.01.2015 23:34 2,4 C 1,7 C 97 % 1023,5 hPa 0,0 l/m 0 min 2 min 0 W/m 14,6 km/h (3 Bft)
03.01.2015 23:36 2,4 C 1,7 C 97 % 1023,5 hPa 0,0 l/m 0 min 2 min 0 W/m 12,6 km/h (3 Bft)
03.01.2015 23:38 2,4 C 1,7 C 97 % 1023,6 hPa 0,0 l/m 0 min 2 min 0 W/m 16,7 km/h (3 Bft)
03.01.2015 23:40 2,4 C 1,7 C 97 % 1023,7 hPa 0,0 l/m 0 min 2 min 0 W/m 12,6 km/h (3 Bft)
03.01.2015 23:42 2,4 C 1,7 C 97 % 1023,7 hPa 0,0 l/m 0 min 2 min 0 W/m 12,6 km/h (3 Bft)
03.01.2015 23:44 2,4 C 1,7 C 97 % 1023,8 hPa 0,0 l/m 0 min 2 min 0 W/m 12,6 km/h (3 Bft)
03.01.2015 23:46 2,4 C 1,7 C 97 % 1023,9 hPa 0,0 l/m 0 min 2 min 0 W/m 14,6 km/h (3 Bft)
03.01.2015 23:48 2,5 C 1,7 C 97 % 1023,9 hPa 0,0 l/m 0 min 2 min 0 W/m 12,6 km/h (3 Bft)
03.01.2015 23:50 2,5 C 1,7 C 97 % 1023,9 hPa 0,0 l/m 0 min 2 min 0 W/m 12,6 km/h (3 Bft)
03.01.2015 23:52 2,5 C 1,7 C 97 % 1024,0 hPa 0,0 l/m 0 min 2 min 0 W/m 14,6 km/h (3 Bft)
03.01.2015 23:54 2,5 C 1,7 C 97 % 1024,0 hPa 0,0 l/m 0 min 2 min 0 W/m 12,6 km/h (3 Bft)
03.01.2015 23:56 2,6 C 1,7 C 97 % 1024,1 hPa 0,0 l/m 0 min 2 min 0 W/m 8,4 km/h (2 Bft)
03.01.2015 23:58 2,6 C 1,7 C 97 % 1024,1 hPa 0,0 l/m 0 min 2 min 0 W/m 10,5 km/h (2 Bft)
_ Min-Zeit 19:42 17:36 00:00 17:20 - - - - 17:56
Minimum _ 0,9 C -1,1 C 85 % 1016,3 hPa - - - - 0,0 km/h (0 Bft)
_ Max-Zeit 09:42 07:50 21:14 00:22 11:34 00:00 09:22 14:02 09:44
Maximum _ 4,0 C 2,8 C 97 % 1032,3 hPa 0,2 l/m 0 min 2 min 54 W/m 43,9 km/h
SW (6 Bft)
Durchschnitt _ 2,7 C 1,4 C 92 % 1023,9 hPa #7,0 l/m #0 min. #11:00 h 31 W/m 13,6 km/h (3 Bft)
© 2015 W. Hausmann